Darstellungsparameter: Aktuell verwendete Einstellungen:
Skalierung der Graphiken ... ?
xyx+y,   Skalierungsfaktor:      Skalierung: Modus: x, Faktor: 1
Darstellungszeitraum ... ?
Vom - - bis: - -   Zeitraum: 22.10.2020 - 26.10.2020
Min/Max/Avg-Anzeige ... ?
Zeige MMA aktuell
Zeige MMA Monat
Zeige MMA alles
Zeige --A aktuell
Zeige --A Monat
Zeige --A alles
Keine MMA-Anzeige
MMA:
Average (ber die Originaldaten)
MMA-Basis: 22.10.2020 - 26.10.2020
Quicknavigation für Darstellung... ?
Tage:      1T, 2T, 3T, 5T -1T -2T -3T -5T +1T +2T +3T +5T
Wochen: 1W, 2W, 3W -1W -2W -3W +1W +2W +3W
Monate: 1M, 3M, 6M -1M -3M -6M +1M +3M +6M
Jahre:    1J, 3J, 5J, 10J -1J -3J -5J -10J +1J +3J +5J +10J
Nutze für die Darstellung ... ?
Originaldaten oder Mittelwerte auf ...
Stundenbasis Tagesbasis Wochenbasis
Monatsbasis Jahresbasis      Datenbasis: Original-Daten
Darstellen als:
Statistik (Auto) Statistik J:M      Darstellung:
Zur Graphik,    zurück zur Übersicht aller Sensoren.
 
Tabellarische Datenbersicht: ?
 
Sensor: Nr:Datum:Temp:Abs-Feuchte:Windchill:Wind:
Aussen-T/F 1 22-10-2020 00:00:00 15.7 C 11.51 g/m*3 15.7 C 4.8 km/h
2 22-10-2020 00:05:00 15.7 C 11.51 g/m*3 15.7 C 0 km/h
3 22-10-2020 00:10:00 15.7 C 11.51 g/m*3 15.7 C 0 km/h
4 22-10-2020 00:15:00 15.7 C 11.51 g/m*3 15.7 C 0 km/h
5 22-10-2020 00:20:00 15.7 C 11.64 g/m*3 15.7 C 0 km/h
6 22-10-2020 00:25:00 15.6 C 11.57 g/m*3 15.6 C 0 km/h
7 22-10-2020 00:30:00 15.6 C 11.57 g/m*3 15.6 C 0 km/h
8 22-10-2020 00:35:00 15.5 C 11.5 g/m*3 15.5 C 0 km/h
9 22-10-2020 00:40:00 15.4 C 11.43 g/m*3 15.4 C 0 km/h
10 22-10-2020 00:45:00 15.4 C 11.56 g/m*3 15.4 C 0 km/h
11 22-10-2020 00:50:00 15.3 C 11.49 g/m*3 15.3 C 0 km/h
12 22-10-2020 00:55:00 15.3 C 11.49 g/m*3 15.3 C 0 km/h
13 22-10-2020 01:00:00 15.2 C 11.42 g/m*3 15.2 C 0 km/h
14 22-10-2020 01:05:00 15.2 C 11.42 g/m*3 15.2 C 0 km/h
15 22-10-2020 01:10:00 15.2 C 11.55 g/m*3 15.2 C 0 km/h
16 22-10-2020 01:15:00 15.1 C 11.48 g/m*3 15.1 C 0 km/h
17 22-10-2020 01:20:00 15.1 C 11.48 g/m*3 15.1 C 0 km/h
18 22-10-2020 01:25:00 15 C 11.41 g/m*3 15 C 0 km/h
19 22-10-2020 01:30:00 14.9 C 11.34 g/m*3 14.9 C 0 km/h
20 22-10-2020 01:35:00 14.8 C 11.27 g/m*3 14.8 C 0 km/h
21 22-10-2020 01:40:00 14.8 C 11.27 g/m*3 14.8 C 0 km/h
22 22-10-2020 01:45:00 14.8 C 11.4 g/m*3 14.8 C 0 km/h
23 22-10-2020 01:50:00 14.8 C 11.4 g/m*3 14.8 C 1.6 km/h
24 22-10-2020 01:55:00 14.8 C 11.4 g/m*3 14.8 C 3.2 km/h
25 22-10-2020 02:00:00 14.7 C 11.33 g/m*3 14.7 C 0 km/h
Sensor: Nr:Datum:Temp:Abs-Feuchte:Windchill:Wind:
Aussen-T/F 26 22-10-2020 02:05:00 14.7 C 11.33 g/m*3 14.7 C 0 km/h
27 22-10-2020 02:10:00 14.7 C 11.33 g/m*3 14.7 C 0 km/h
28 22-10-2020 02:15:00 14.7 C 11.33 g/m*3 14.7 C 0 km/h
29 22-10-2020 02:20:00 14.6 C 11.26 g/m*3 14.6 C 0 km/h
30 22-10-2020 02:25:00 14.6 C 11.26 g/m*3 14.6 C 0 km/h
31 22-10-2020 02:30:00 14.6 C 11.39 g/m*3 14.6 C 0 km/h
32 22-10-2020 02:35:00 14.6 C 11.39 g/m*3 14.6 C 0 km/h
33 22-10-2020 02:40:00 14.6 C 11.39 g/m*3 14.6 C 0 km/h
34 22-10-2020 02:45:00 14.5 C 11.32 g/m*3 14.5 C 0 km/h
35 22-10-2020 02:50:00 14.5 C 11.32 g/m*3 14.5 C 0 km/h
36 22-10-2020 02:55:00 14.4 C 11.25 g/m*3 14.4 C 0 km/h
37 22-10-2020 03:00:00 14.4 C 11.25 g/m*3 14.4 C 0 km/h
38 22-10-2020 03:05:00 14.3 C 11.18 g/m*3 14.3 C 0 km/h
39 22-10-2020 03:10:00 14.3 C 11.18 g/m*3 14.3 C 0 km/h
40 22-10-2020 03:15:00 14.3 C 11.3 g/m*3 14.3 C 0 km/h
41 22-10-2020 03:20:00 14.2 C 11.23 g/m*3 14.2 C 0 km/h
42 22-10-2020 03:25:00 14.2 C 11.23 g/m*3 14.2 C 0 km/h
43 22-10-2020 03:30:00 14.2 C 11.23 g/m*3 14.2 C 0 km/h
44 22-10-2020 03:35:00 14.2 C 11.23 g/m*3 14.2 C 1.6 km/h
45 22-10-2020 03:40:00 14.3 C 11.43 g/m*3 14.3 C 0 km/h
46 22-10-2020 03:45:00 14.3 C 11.43 g/m*3 14.3 C 0 km/h
47 22-10-2020 03:50:00 14.3 C 11.43 g/m*3 14.3 C 0 km/h
48 22-10-2020 03:55:00 14.3 C 11.43 g/m*3 14.3 C 0 km/h
49 22-10-2020 04:00:00 14.3 C 11.43 g/m*3 14.3 C 0 km/h
50 22-10-2020 04:05:00 14.3 C 11.43 g/m*3 14.3 C 3.2 km/h
Sensor: Nr:Datum:Temp:Abs-Feuchte:Windchill:Wind:
Aussen-T/F 51 22-10-2020 04:10:00 14.3 C 11.43 g/m*3 14.3 C 1.6 km/h
52 22-10-2020 04:15:00 14.3 C 11.43 g/m*3 14.3 C 3.2 km/h
53 22-10-2020 04:20:00 14.3 C 11.43 g/m*3 14.3 C 0 km/h
54 22-10-2020 04:25:00 14.3 C 11.43 g/m*3 14.3 C 1.6 km/h
55 22-10-2020 04:30:00 14.3 C 11.43 g/m*3 14.3 C 1.6 km/h
56 22-10-2020 04:35:00 14.3 C 11.43 g/m*3 14.3 C 3.2 km/h
57 22-10-2020 04:40:00 14.3 C 11.43 g/m*3 14.3 C 3.2 km/h
58 22-10-2020 04:45:00 14.3 C 11.43 g/m*3 14.3 C 0 km/h
59 22-10-2020 04:50:00 14.3 C 11.43 g/m*3 14.3 C 3.2 km/h
60 22-10-2020 04:55:00 14.3 C 11.43 g/m*3 14.3 C 0 km/h
61 22-10-2020 05:00:00 14.3 C 11.43 g/m*3 14.3 C 3.2 km/h
62 22-10-2020 05:05:00 14.3 C 11.43 g/m*3 14.3 C 1.6 km/h
63 22-10-2020 05:10:00 14.3 C 11.43 g/m*3 14.3 C 0 km/h
64 22-10-2020 05:15:00 14.3 C 11.3 g/m*3 14.3 C 0 km/h
65 22-10-2020 05:20:00 14.3 C 11.43 g/m*3 14.3 C 0 km/h
66 22-10-2020 05:25:00 14.3 C 11.43 g/m*3 14.3 C 4.8 km/h
67 22-10-2020 05:30:00 14.3 C 11.43 g/m*3 14.3 C 0 km/h
68 22-10-2020 05:35:00 14.3 C 11.43 g/m*3 14.3 C 0 km/h
69 22-10-2020 05:40:00 14.4 C 11.5 g/m*3 14.4 C 0 km/h
70 22-10-2020 05:45:00 14.4 C 11.5 g/m*3 14.4 C 1.6 km/h
71 22-10-2020 05:50:00 14.4 C 11.5 g/m*3 14.4 C 0 km/h
72 22-10-2020 05:55:00 14.4 C 11.5 g/m*3 14.4 C 0 km/h
73 22-10-2020 06:00:00 14.4 C 11.5 g/m*3 14.4 C 0 km/h
74 22-10-2020 06:05:00 14.5 C 11.57 g/m*3 14.5 C 0 km/h
75 22-10-2020 06:10:00 14.4 C 11.5 g/m*3 14.4 C 0 km/h
Sensor: Nr:Datum:Temp:Abs-Feuchte:Windchill:Wind:
Aussen-T/F 76 22-10-2020 06:15:00 14.4 C 11.37 g/m*3 14.4 C 0 km/h
77 22-10-2020 06:20:00 14.4 C 11.37 g/m*3 14.4 C 0 km/h
78 22-10-2020 06:25:00 14.4 C 11.5 g/m*3 14.4 C 0 km/h
79 22-10-2020 06:30:00 14.3 C 11.3 g/m*3 14.3 C 0 km/h
80 22-10-2020 06:35:00 14.3 C 11.3 g/m*3 14.3 C 4.8 km/h
81 22-10-2020 06:40:00 14.2 C 11.23 g/m*3 14.2 C 3.2 km/h
82 22-10-2020 06:45:00 14.2 C 11.23 g/m*3 14.2 C 3.2 km/h
83 22-10-2020 06:50:00 14.1 C 11.17 g/m*3 14.1 C 3.2 km/h
84 22-10-2020 06:55:00 14.1 C 11.17 g/m*3 14.1 C 3.2 km/h
85 22-10-2020 07:00:00 14.1 C 11.29 g/m*3 14.1 C 3.2 km/h
86 22-10-2020 07:05:00 14.1 C 11.29 g/m*3 14.1 C 1.6 km/h
87 22-10-2020 07:10:00 14.1 C 11.29 g/m*3 14.1 C 0 km/h
88 22-10-2020 07:15:00 14.1 C 11.29 g/m*3 14.1 C 0 km/h
89 22-10-2020 07:20:00 14.2 C 11.36 g/m*3 14.2 C 0 km/h
90 22-10-2020 07:25:00 14.2 C 11.36 g/m*3 14.2 C 0 km/h
91 22-10-2020 07:30:00 14.2 C 11.36 g/m*3 14.2 C 0 km/h
92 22-10-2020 07:35:00 14.2 C 11.36 g/m*3 14.2 C 0 km/h
93 22-10-2020 07:40:00 14.2 C 11.36 g/m*3 14.2 C 0 km/h
94 22-10-2020 07:45:00 14.1 C 11.29 g/m*3 14.1 C 0 km/h
95 22-10-2020 07:50:00 14.1 C 11.29 g/m*3 14.1 C 0 km/h
96 22-10-2020 07:55:00 14.1 C 11.29 g/m*3 14.1 C 0 km/h
97 22-10-2020 08:00:00 14.1 C 11.29 g/m*3 14.1 C 0 km/h
98 22-10-2020 08:05:00 14.1 C 11.29 g/m*3 14.1 C 0 km/h
99 22-10-2020 08:10:00 13.9 C 11.03 g/m*3 13.9 C 0 km/h
100 22-10-2020 08:15:00 13.9 C 11.03 g/m*3 13.9 C 0 km/h
Sensor: Nr:Datum:Temp:Abs-Feuchte:Windchill:Wind:
Aussen-T/F 101 22-10-2020 08:20:00 13.8 C 11.08 g/m*3 13.8 C 0 km/h
102 22-10-2020 08:25:00 13.8 C 11.08 g/m*3 13.8 C 0 km/h
103 22-10-2020 08:30:00 13.8 C 11.08 g/m*3 13.8 C 0 km/h
104 22-10-2020 08:35:00 13.9 C 11.15 g/m*3 13.9 C 0 km/h
105 22-10-2020 08:40:00 13.9 C 11.15 g/m*3 13.9 C 0 km/h
106 22-10-2020 08:45:00 14 C 11.22 g/m*3 14 C 0 km/h
107 22-10-2020 08:50:00 14.1 C 11.29 g/m*3 14.1 C 4.8 km/h
108 22-10-2020 08:55:00 14.2 C 11.36 g/m*3 14.2 C 3.2 km/h
109 22-10-2020 09:00:00 14.3 C 11.43 g/m*3 14.3 C 0 km/h
110 22-10-2020 09:05:00 14.4 C 11.5 g/m*3 14.4 C 1.6 km/h
111 22-10-2020 09:10:00 14.6 C 11.51 g/m*3 14.6 C 3.2 km/h
112 22-10-2020 09:15:00 14.7 C 11.58 g/m*3 14.7 C 1.6 km/h
113 22-10-2020 09:20:00 14.8 C 11.65 g/m*3 14.8 C 0 km/h
114 22-10-2020 09:25:00 14.8 C 11.53 g/m*3 14.8 C 0 km/h
115 22-10-2020 09:30:00 14.9 C 11.73 g/m*3 14.9 C 1.6 km/h
116 22-10-2020 09:35:00 14.9 C 11.73 g/m*3 14.9 C 0 km/h
117 22-10-2020 09:40:00 15.1 C 11.87 g/m*3 15.1 C 0 km/h
118 22-10-2020 09:45:00 15.2 C 11.94 g/m*3 15.2 C 0 km/h
119 22-10-2020 09:50:00 15.3 C 12.01 g/m*3 15.3 C 0 km/h
120 22-10-2020 09:55:00 15.3 C 12.01 g/m*3 15.3 C 0 km/h
121 22-10-2020 10:00:00 15.4 C 12.09 g/m*3 15.4 C 0 km/h
122 22-10-2020 10:05:00 15.4 C 12.09 g/m*3 15.4 C 0 km/h
123 22-10-2020 10:10:00 15.4 C 11.96 g/m*3 15.4 C 1.6 km/h
124 22-10-2020 10:15:00 15.3 C 11.75 g/m*3 15.3 C 1.6 km/h
125 22-10-2020 10:20:00 15.3 C 11.75 g/m*3 15.3 C 1.6 km/h
Sensor: Nr:Datum:Temp:Abs-Feuchte:Windchill:Wind:
Aussen-T/F 126 22-10-2020 10:25:00 15.2 C 11.68 g/m*3 15.2 C 1.6 km/h
127 22-10-2020 10:30:00 15.2 C 11.68 g/m*3 15.2 C 0 km/h
128 22-10-2020 10:35:00 15.1 C 11.61 g/m*3 15.1 C 0 km/h
129 22-10-2020 10:40:00 15.1 C 11.74 g/m*3 15.1 C 0 km/h
130 22-10-2020 10:45:00 15.2 C 11.81 g/m*3 15.2 C 0 km/h
131 22-10-2020 10:50:00 15.3 C 12.01 g/m*3 15.3 C 1.6 km/h
132 22-10-2020 10:55:00 15.4 C 11.96 g/m*3 15.4 C 3.2 km/h
133 22-10-2020 11:00:00 15.7 C 12.18 g/m*3 15.7 C 1.6 km/h
134 22-10-2020 11:05:00 15.9 C 11.92 g/m*3 15.9 C 6.4 km/h
135 22-10-2020 11:10:00 16.3 C 11.93 g/m*3 16.3 C 8.1 km/h
136 22-10-2020 11:15:00 16.6 C 12.15 g/m*3 16.6 C 11.3 km/h
137 22-10-2020 11:20:00 16.8 C 12.01 g/m*3 16.8 C 14.5 km/h
138 22-10-2020 11:25:00 16.8 C 11.87 g/m*3 16.8 C 14.5 km/h
139 22-10-2020 11:30:00 16.9 C 11.79 g/m*3 16.9 C 6.4 km/h
140 22-10-2020 11:35:00 16.9 C 11.79 g/m*3 16.9 C 4.8 km/h
141 22-10-2020 11:40:00 16.9 C 11.79 g/m*3 16.9 C 4.8 km/h
142 22-10-2020 11:45:00 16.8 C 11.87 g/m*3 16.8 C 1.6 km/h
143 22-10-2020 11:50:00 16.8 C 11.87 g/m*3 16.8 C 11.3 km/h
144 22-10-2020 11:55:00 16.9 C 11.94 g/m*3 16.9 C 1.6 km/h
145 22-10-2020 12:00:00 16.9 C 11.94 g/m*3 16.9 C 0 km/h
146 22-10-2020 12:05:00 16.9 C 11.94 g/m*3 16.9 C 1.6 km/h
147 22-10-2020 12:10:00 17 C 12.01 g/m*3 17 C 3.2 km/h
148 22-10-2020 12:15:00 17.1 C 11.94 g/m*3 17.1 C 8.1 km/h
149 22-10-2020 12:20:00 17.2 C 12.15 g/m*3 17.2 C 1.6 km/h
150 22-10-2020 12:25:00 17.3 C 12.08 g/m*3 17.3 C 3.2 km/h
Sensor: Nr:Datum:Temp:Abs-Feuchte:Windchill:Wind:
Aussen-T/F 151 22-10-2020 12:30:00 17.3 C 11.93 g/m*3 17.3 C 9.7 km/h
152 22-10-2020 12:35:00 17.3 C 11.64 g/m*3 17.3 C 11.3 km/h
153 22-10-2020 12:40:00 17.7 C 11.92 g/m*3 17.7 C 12.9 km/h
154 22-10-2020 12:45:00 17.8 C 11.84 g/m*3 17.8 C 8.1 km/h
155 22-10-2020 12:50:00 17.9 C 11.91 g/m*3 17.9 C 1.6 km/h
156 22-10-2020 12:55:00 18 C 11.83 g/m*3 18 C 14.5 km/h
157 22-10-2020 13:00:00 18.2 C 11.81 g/m*3 18.2 C 8.1 km/h
158 22-10-2020 13:05:00 18.3 C 11.73 g/m*3 18.3 C 11.3 km/h
159 22-10-2020 13:10:00 18.4 C 11.8 g/m*3 18.4 C 12.9 km/h
160 22-10-2020 13:15:00 18.6 C 12.1 g/m*3 18.6 C 6.4 km/h
161 22-10-2020 13:20:00 18.6 C 12.1 g/m*3 18.6 C 3.2 km/h
162 22-10-2020 13:25:00 18.7 C 12.01 g/m*3 18.7 C 6.4 km/h
163 22-10-2020 13:30:00 18.7 C 12.17 g/m*3 18.7 C 4.8 km/h
164 22-10-2020 13:35:00 18.7 C 12.01 g/m*3 18.7 C 6.4 km/h
165 22-10-2020 13:40:00 18.8 C 12.08 g/m*3 18.8 C 11.3 km/h
166 22-10-2020 13:45:00 18.9 C 11.99 g/m*3 18.9 C 9.7 km/h
167 22-10-2020 13:50:00 19.2 C 11.71 g/m*3 19.2 C 19.3 km/h
168 22-10-2020 13:55:00 19.3 C 11.78 g/m*3 19.3 C 11.3 km/h
169 22-10-2020 14:00:00 19.4 C 11.85 g/m*3 19.4 C 14.5 km/h
170 22-10-2020 14:05:00 19.4 C 12.01 g/m*3 19.4 C 12.9 km/h
171 22-10-2020 14:10:00 19.4 C 11.85 g/m*3 19.4 C 14.5 km/h
172 22-10-2020 14:15:00 19.5 C 11.92 g/m*3 19.5 C 8.1 km/h
173 22-10-2020 14:20:00 19.6 C 12.15 g/m*3 19.6 C 4.8 km/h
174 22-10-2020 14:25:00 19.6 C 11.82 g/m*3 19.6 C 11.3 km/h
175 22-10-2020 14:30:00 19.7 C 11.89 g/m*3 19.7 C 11.3 km/h
Sensor: Nr:Datum:Temp:Abs-Feuchte:Windchill:Wind:
Aussen-T/F 176 22-10-2020 14:35:00 19.8 C 12.13 g/m*3 19.8 C 6.4 km/h
177 22-10-2020 14:40:00 19.9 C 12.03 g/m*3 19.9 C 17.7 km/h
178 22-10-2020 14:45:00 19.9 C 12.03 g/m*3 19.9 C 12.9 km/h
179 22-10-2020 14:50:00 20 C 12.1 g/m*3 20 C 9.7 km/h
180 22-10-2020 14:55:00 20.1 C 12.34 g/m*3 20.1 C 4.8 km/h
181 22-10-2020 15:00:00 20.1 C 12.52 g/m*3 20.1 C 8.1 km/h
182 22-10-2020 15:05:00 20 C 11.92 g/m*3 20 C 11.3 km/h
183 22-10-2020 15:10:00 20.1 C 12.17 g/m*3 20.1 C 16.1 km/h
184 22-10-2020 15:15:00 20.1 C 12.17 g/m*3 20.1 C 9.7 km/h
185 22-10-2020 15:20:00 20.2 C 12.06 g/m*3 20.2 C 14.5 km/h
186 22-10-2020 15:25:00 20.2 C 12.06 g/m*3 20.2 C 12.9 km/h
187 22-10-2020 15:30:00 20.2 C 12.06 g/m*3 20.2 C 8.1 km/h
188 22-10-2020 15:35:00 20.2 C 12.24 g/m*3 20.2 C 9.7 km/h
189 22-10-2020 15:40:00 20.2 C 12.24 g/m*3 20.2 C 11.3 km/h
190 22-10-2020 15:45:00 20.2 C 12.24 g/m*3 20.2 C 8.1 km/h
191 22-10-2020 15:50:00 20.2 C 12.59 g/m*3 20.2 C 3.2 km/h
192 22-10-2020 15:55:00 20.1 C 12.34 g/m*3 20.1 C 9.7 km/h
193 22-10-2020 16:00:00 20.1 C 12.34 g/m*3 20.1 C 6.4 km/h
194 22-10-2020 16:05:00 20.1 C 12.52 g/m*3 20.1 C 1.6 km/h
195 22-10-2020 16:10:00 20.2 C 12.94 g/m*3 20.2 C 6.4 km/h
196 22-10-2020 16:15:00 20.2 C 12.41 g/m*3 20.2 C 8.1 km/h
197 22-10-2020 16:20:00 20.4 C 12.38 g/m*3 20.4 C 12.9 km/h
198 22-10-2020 16:25:00 20.5 C 12.46 g/m*3 20.5 C 19.3 km/h
199 22-10-2020 16:30:00 20.6 C 12.35 g/m*3 20.6 C 9.7 km/h
200 22-10-2020 16:35:00 20.6 C 12.71 g/m*3 20.6 C 1.6 km/h
Sensor: Nr:Datum:Temp:Abs-Feuchte:Windchill:Wind:
Aussen-T/F 201 22-10-2020 16:40:00 20.6 C 12.89 g/m*3 20.6 C 1.6 km/h
202 22-10-2020 16:45:00 20.4 C 12.74 g/m*3 20.4 C 4.8 km/h
203 22-10-2020 16:50:00 20.3 C 12.84 g/m*3 20.3 C 1.6 km/h
204 22-10-2020 16:55:00 20.1 C 13.04 g/m*3 20.1 C 1.6 km/h
205 22-10-2020 17:00:00 19.8 C 12.64 g/m*3 19.8 C 4.8 km/h
206 22-10-2020 17:05:00 19.7 C 12.74 g/m*3 19.7 C 1.6 km/h
207 22-10-2020 17:10:00 19.6 C 12.83 g/m*3 19.6 C 4.8 km/h
208 22-10-2020 17:15:00 19.4 C 13.01 g/m*3 19.4 C 3.2 km/h
209 22-10-2020 17:20:00 19.3 C 12.94 g/m*3 19.3 C 4.8 km/h
210 22-10-2020 17:25:00 19.2 C 13.03 g/m*3 19.2 C 3.2 km/h
211 22-10-2020 17:30:00 19 C 12.87 g/m*3 19 C 4.8 km/h
212 22-10-2020 17:35:00 18.8 C 12.88 g/m*3 18.8 C 4.8 km/h
213 22-10-2020 17:40:00 18.6 C 12.73 g/m*3 18.6 C 4.8 km/h
214 22-10-2020 17:45:00 18.5 C 12.82 g/m*3 18.5 C 3.2 km/h
215 22-10-2020 17:50:00 18.4 C 12.9 g/m*3 18.4 C 4.8 km/h
216 22-10-2020 17:55:00 18.4 C 12.74 g/m*3 18.4 C 4.8 km/h
217 22-10-2020 18:00:00 18.3 C 12.82 g/m*3 18.3 C 4.8 km/h
218 22-10-2020 18:05:00 18.2 C 12.75 g/m*3 18.2 C 3.2 km/h
219 22-10-2020 18:10:00 18.1 C 12.67 g/m*3 18.1 C 4.8 km/h
220 22-10-2020 18:15:00 17.9 C 12.67 g/m*3 17.9 C 4.8 km/h
221 22-10-2020 18:20:00 17.8 C 12.6 g/m*3 17.8 C 4.8 km/h
222 22-10-2020 18:25:00 17.6 C 12.45 g/m*3 17.6 C 6.4 km/h
223 22-10-2020 18:30:00 17.4 C 12.3 g/m*3 17.4 C 6.4 km/h
224 22-10-2020 18:35:00 17.2 C 12.3 g/m*3 17.2 C 4.8 km/h
225 22-10-2020 18:40:00 17 C 12.15 g/m*3 17 C 3.2 km/h
Sensor: Nr:Datum:Temp:Abs-Feuchte:Windchill:Wind:
Aussen-T/F 226 22-10-2020 18:45:00 16.8 C 12.15 g/m*3 16.8 C 0 km/h
227 22-10-2020 18:50:00 16.7 C 12.08 g/m*3 16.7 C 4.8 km/h
228 22-10-2020 18:55:00 16.5 C 12.08 g/m*3 16.5 C 6.4 km/h
229 22-10-2020 19:00:00 16.3 C 11.93 g/m*3 16.3 C 6.4 km/h
230 22-10-2020 19:05:00 16.2 C 11.86 g/m*3 16.2 C 6.4 km/h
231 22-10-2020 19:10:00 16.2 C 12 g/m*3 16.2 C 4.8 km/h
232 22-10-2020 19:15:00 16.1 C 11.93 g/m*3 16.1 C 3.2 km/h
233 22-10-2020 19:20:00 16.1 C 12.06 g/m*3 16.1 C 1.6 km/h
234 22-10-2020 19:25:00 16 C 11.99 g/m*3 16 C 4.8 km/h
235 22-10-2020 19:30:00 16 C 11.99 g/m*3 16 C 4.8 km/h
236 22-10-2020 19:35:00 16 C 11.99 g/m*3 16 C 4.8 km/h
237 22-10-2020 19:40:00 16 C 11.99 g/m*3 16 C 4.8 km/h
238 22-10-2020 19:45:00 15.9 C 11.92 g/m*3 15.9 C 3.2 km/h
239 22-10-2020 19:50:00 16 C 11.99 g/m*3 16 C 3.2 km/h
240 22-10-2020 19:55:00 15.9 C 11.92 g/m*3 15.9 C 3.2 km/h
241 22-10-2020 20:00:00 15.9 C 11.92 g/m*3 15.9 C 4.8 km/h
242 22-10-2020 20:05:00 15.8 C 11.85 g/m*3 15.8 C 4.8 km/h
243 22-10-2020 20:10:00 15.8 C 11.85 g/m*3 15.8 C 4.8 km/h
244 22-10-2020 20:15:00 15.7 C 11.77 g/m*3 15.7 C 4.8 km/h
245 22-10-2020 20:20:00 15.6 C 11.7 g/m*3 15.6 C 4.8 km/h
246 22-10-2020 20:25:00 15.6 C 11.84 g/m*3 15.6 C 3.2 km/h
247 22-10-2020 20:30:00 15.6 C 11.84 g/m*3 15.6 C 4.8 km/h
248 22-10-2020 20:35:00 15.6 C 11.84 g/m*3 15.6 C 1.6 km/h
249 22-10-2020 20:40:00 15.6 C 11.84 g/m*3 15.6 C 4.8 km/h
250 22-10-2020 20:45:00 15.6 C 11.97 g/m*3 15.6 C 4.8 km/h
Sensor: Nr:Datum:Temp:Abs-Feuchte:Windchill:Wind:
Aussen-T/F 251 22-10-2020 20:50:00 15.6 C 11.84 g/m*3 15.6 C 4.8 km/h
252 22-10-2020 20:55:00 15.6 C 11.84 g/m*3 15.6 C 3.2 km/h
253 22-10-2020 21:00:00 15.7 C 11.91 g/m*3 15.7 C 3.2 km/h
254 22-10-2020 21:05:00 15.7 C 11.91 g/m*3 15.7 C 1.6 km/h
255 22-10-2020 21:10:00 15.7 C 11.91 g/m*3 15.7 C 0 km/h
256 22-10-2020 21:15:00 15.6 C 11.84 g/m*3 15.6 C 0 km/h
257 22-10-2020 21:20:00 15.6 C 11.84 g/m*3 15.6 C 1.6 km/h
258 22-10-2020 21:25:00 15.6 C 11.84 g/m*3 15.6 C 0 km/h
259 22-10-2020 21:30:00 15.6 C 11.84 g/m*3 15.6 C 1.6 km/h
260 22-10-2020 21:35:00 15.5 C 11.76 g/m*3 15.5 C 0 km/h
261 22-10-2020 21:40:00 15.5 C 11.9 g/m*3 15.5 C 0 km/h
262 22-10-2020 21:45:00 15.6 C 11.84 g/m*3 15.6 C 1.6 km/h
263 22-10-2020 21:50:00 15.6 C 11.84 g/m*3 15.6 C 4.8 km/h
264 22-10-2020 21:55:00 15.6 C 11.84 g/m*3 15.6 C 1.6 km/h
265 22-10-2020 22:00:00 15.6 C 11.97 g/m*3 15.6 C 3.2 km/h
266 22-10-2020 22:05:00 15.6 C 11.97 g/m*3 15.6 C 3.2 km/h
267 22-10-2020 22:10:00 15.6 C 11.97 g/m*3 15.6 C 1.6 km/h
268 22-10-2020 22:15:00 15.6 C 11.97 g/m*3 15.6 C 3.2 km/h
269 22-10-2020 22:20:00 15.6 C 11.97 g/m*3 15.6 C 3.2 km/h
270 22-10-2020 22:25:00 15.6 C 11.97 g/m*3 15.6 C 0 km/h
271 22-10-2020 22:30:00 15.6 C 11.97 g/m*3 15.6 C 0 km/h
272 22-10-2020 22:35:00 15.6 C 11.97 g/m*3 15.6 C 0 km/h
273 22-10-2020 22:40:00 15.6 C 11.97 g/m*3 15.6 C 0 km/h
274 22-10-2020 22:45:00 15.6 C 11.97 g/m*3 15.6 C 0 km/h
275 22-10-2020 22:50:00 15.6 C 11.97 g/m*3 15.6 C 0 km/h
Sensor: Nr:Datum:Temp:Abs-Feuchte:Windchill:Wind:
Aussen-T/F 276 22-10-2020 22:55:00 15.6 C 11.97 g/m*3 15.6 C 0 km/h
277 22-10-2020 23:00:00 15.6 C 11.97 g/m*3 15.6 C 0 km/h
278 22-10-2020 23:05:00 15.6 C 11.97 g/m*3 15.6 C 0 km/h
279 22-10-2020 23:10:00 15.6 C 11.97 g/m*3 15.6 C 0 km/h
280 22-10-2020 23:15:00 15.6 C 11.97 g/m*3 15.6 C 0 km/h
281 22-10-2020 23:20:00 15.6 C 11.97 g/m*3 15.6 C 0 km/h
282 22-10-2020 23:25:00 15.6 C 11.97 g/m*3 15.6 C 0 km/h
283 22-10-2020 23:30:00 15.6 C 12.1 g/m*3 15.6 C 0 km/h
284 22-10-2020 23:35:00 15.6 C 12.1 g/m*3 15.6 C 0 km/h
285 22-10-2020 23:40:00 15.6 C 12.1 g/m*3 15.6 C 0 km/h
286 22-10-2020 23:45:00 15.6 C 12.1 g/m*3 15.6 C 0 km/h
287 22-10-2020 23:50:00 15.6 C 12.1 g/m*3 15.6 C 0 km/h
288 22-10-2020 23:55:00 15.6 C 12.1 g/m*3 15.6 C 0 km/h
289 23-10-2020 00:00:00 15.5 C 12.03 g/m*3 15.5 C 0 km/h
290 23-10-2020 00:05:00 15.5 C 12.03 g/m*3 15.5 C 0 km/h
291 23-10-2020 00:10:00 15.4 C 11.96 g/m*3 15.4 C 0 km/h
292 23-10-2020 00:15:00 15.4 C 11.96 g/m*3 15.4 C 0 km/h
293 23-10-2020 00:20:00 15.4 C 11.96 g/m*3 15.4 C 0 km/h
294 23-10-2020 00:25:00 15.4 C 11.96 g/m*3 15.4 C 0 km/h
295 23-10-2020 00:30:00 15.4 C 11.96 g/m*3 15.4 C 0 km/h
296 23-10-2020 00:35:00 15.4 C 11.96 g/m*3 15.4 C 0 km/h
297 23-10-2020 00:40:00 15.3 C 11.88 g/m*3 15.3 C 0 km/h
298 23-10-2020 00:45:00 15.3 C 11.88 g/m*3 15.3 C 0 km/h
299 23-10-2020 00:50:00 15.3 C 11.88 g/m*3 15.3 C 0 km/h
300 23-10-2020 00:55:00 15.3 C 12.01 g/m*3 15.3 C 0 km/h
Sensor: Nr:Datum:Temp:Abs-Feuchte:Windchill:Wind:
Aussen-T/F 301 23-10-2020 01:00:00 15.3 C 12.01 g/m*3 15.3 C 0 km/h
302 23-10-2020 01:05:00 15.3 C 12.01 g/m*3 15.3 C 0 km/h
303 23-10-2020 01:10:00 15.3 C 12.01 g/m*3 15.3 C 0 km/h
304 23-10-2020 01:15:00 15.3 C 12.01 g/m*3 15.3 C 0 km/h
305 23-10-2020 01:20:00 15.4 C 12.09 g/m*3 15.4 C 0 km/h
306 23-10-2020 01:25:00 15.4 C 11.96 g/m*3 15.4 C 0 km/h
307 23-10-2020 01:30:00 15.4 C 11.96 g/m*3 15.4 C 0 km/h
308 23-10-2020 01:35:00 15.4 C 11.96 g/m*3 15.4 C 0 km/h
309 23-10-2020 01:40:00 15.3 C 11.88 g/m*3 15.3 C 0 km/h
310 23-10-2020 01:45:00 15.4 C 11.96 g/m*3 15.4 C 1.6 km/h
311 23-10-2020 01:50:00 15.4 C 11.96 g/m*3 15.4 C 0 km/h
312 23-10-2020 01:55:00 15.4 C 11.96 g/m*3 15.4 C 0 km/h
313 23-10-2020 02:00:00 15.4 C 11.96 g/m*3 15.4 C 0 km/h
314 23-10-2020 02:05:00 15.4 C 11.96 g/m*3 15.4 C 0 km/h
315 23-10-2020 02:10:00 15.4 C 11.96 g/m*3 15.4 C 0 km/h
316 23-10-2020 02:15:00 15.4 C 11.96 g/m*3 15.4 C 0 km/h
317 23-10-2020 02:20:00 15.4 C 11.96 g/m*3 15.4 C 0 km/h
318 23-10-2020 02:25:00 15.5 C 12.03 g/m*3 15.5 C 0 km/h
319 23-10-2020 02:30:00 15.6 C 12.1 g/m*3 15.6 C 3.2 km/h
320 23-10-2020 02:35:00 15.6 C 12.1 g/m*3 15.6 C 0 km/h
321 23-10-2020 02:40:00 15.7 C 12.18 g/m*3 15.7 C 0 km/h
322 23-10-2020 02:45:00 15.7 C 12.04 g/m*3 15.7 C 0 km/h
323 23-10-2020 02:50:00 15.6 C 11.97 g/m*3 15.6 C 0 km/h
324 23-10-2020 02:55:00 15.6 C 12.1 g/m*3 15.6 C 0 km/h
325 23-10-2020 03:00:00 15.6 C 12.1 g/m*3 15.6 C 0 km/h
Sensor: Nr:Datum:Temp:Abs-Feuchte:Windchill:Wind:
Aussen-T/F 326 23-10-2020 03:05:00 15.6 C 12.1 g/m*3 15.6 C 0 km/h
327 23-10-2020 03:10:00 15.6 C 12.1 g/m*3 15.6 C 0 km/h
328 23-10-2020 03:15:00 15.6 C 12.1 g/m*3 15.6 C 0 km/h
329 23-10-2020 03:20:00 15.6 C 12.1 g/m*3 15.6 C 0 km/h
330 23-10-2020 03:25:00 15.6 C 12.1 g/m*3 15.6 C 0 km/h
331 23-10-2020 03:30:00 15.6 C 12.1 g/m*3 15.6 C 1.6 km/h
332 23-10-2020 03:35:00 15.6 C 12.1 g/m*3 15.6 C 1.6 km/h
333 23-10-2020 03:40:00 15.6 C 12.1 g/m*3 15.6 C 0 km/h
334 23-10-2020 03:45:00 15.6 C 12.1 g/m*3 15.6 C 3.2 km/h
335 23-10-2020 03:50:00 15.6 C 12.1 g/m*3 15.6 C 0 km/h
336 23-10-2020 03:55:00 15.6 C 12.1 g/m*3 15.6 C 0 km/h
337 23-10-2020 04:00:00 15.6 C 12.1 g/m*3 15.6 C 4.8 km/h
338 23-10-2020 04:05:00 15.6 C 12.1 g/m*3 15.6 C 4.8 km/h
339 23-10-2020 04:10:00 15.7 C 12.04 g/m*3 15.7 C 3.2 km/h
340 23-10-2020 04:15:00 15.7 C 12.04 g/m*3 15.7 C 0 km/h
341 23-10-2020 04:20:00 15.8 C 12.11 g/m*3 15.8 C 1.6 km/h
342 23-10-2020 04:25:00 15.8 C 11.98 g/m*3 15.8 C 1.6 km/h
343 23-10-2020 04:30:00 15.8 C 11.98 g/m*3 15.8 C 1.6 km/h
344 23-10-2020 04:35:00 15.9 C 12.05 g/m*3 15.9 C 1.6 km/h
345 23-10-2020 04:40:00 15.9 C 12.05 g/m*3 15.9 C 1.6 km/h
346 23-10-2020 04:45:00 15.9 C 11.92 g/m*3 15.9 C 3.2 km/h
347 23-10-2020 04:50:00 16 C 11.99 g/m*3 16 C 1.6 km/h
348 23-10-2020 04:55:00 16 C 11.99 g/m*3 16 C 1.6 km/h
349 23-10-2020 05:00:00 16 C 11.99 g/m*3 16 C 0 km/h
350 23-10-2020 05:05:00 16 C 11.99 g/m*3 16 C 1.6 km/h
Sensor: Nr:Datum:Temp:Abs-Feuchte:Windchill:Wind:
Aussen-T/F 351 23-10-2020 05:10:00 16 C 11.99 g/m*3 16 C 0 km/h
352 23-10-2020 05:15:00 16 C 11.99 g/m*3 16 C 0 km/h
353 23-10-2020 05:20:00 16 C 11.99 g/m*3 16 C 11.3 km/h
354 23-10-2020 05:25:00 16.1 C 12.06 g/m*3 16.1 C 1.6 km/h
355 23-10-2020 05:30:00 16.1 C 12.06 g/m*3 16.1 C 0 km/h
356 23-10-2020 05:35:00 16.1 C 12.06 g/m*3 16.1 C 3.2 km/h
357 23-10-2020 05:40:00 16.1 C 12.06 g/m*3 16.1 C 3.2 km/h
358 23-10-2020 05:45:00 16.1 C 12.06 g/m*3 16.1 C 1.6 km/h
359 23-10-2020 05:50:00 16.1 C 12.06 g/m*3 16.1 C 1.6 km/h
360 23-10-2020 05:55:00 16.1 C 12.06 g/m*3 16.1 C 0 km/h
361 23-10-2020 06:00:00 16 C 11.99 g/m*3 16 C 0 km/h
362 23-10-2020 06:05:00 16 C 11.99 g/m*3 16 C 0 km/h
363 23-10-2020 06:10:00 15.9 C 11.92 g/m*3 15.9 C 0 km/h
364 23-10-2020 06:15:00 15.9 C 11.92 g/m*3 15.9 C 1.6 km/h
365 23-10-2020 06:20:00 15.9 C 11.92 g/m*3 15.9 C 0 km/h
366 23-10-2020 06:25:00 15.8 C 11.85 g/m*3 15.8 C 0 km/h
367 23-10-2020 06:30:00 15.8 C 11.85 g/m*3 15.8 C 0 km/h
368 23-10-2020 06:35:00 15.8 C 11.85 g/m*3 15.8 C 0 km/h
369 23-10-2020 06:40:00 15.7 C 11.91 g/m*3 15.7 C 0 km/h
370 23-10-2020 06:45:00 15.6 C 11.84 g/m*3 15.6 C 1.6 km/h
371 23-10-2020 06:50:00 15.6 C 11.84 g/m*3 15.6 C 3.2 km/h
372 23-10-2020 06:55:00 15.4 C 11.82 g/m*3 15.4 C 1.6 km/h
373 23-10-2020 07:00:00 15.3 C 11.75 g/m*3 15.3 C 1.6 km/h
374 23-10-2020 07:05:00 15.3 C 11.88 g/m*3 15.3 C 1.6 km/h
375 23-10-2020 07:10:00 15.2 C 11.81 g/m*3 15.2 C 1.6 km/h
Sensor: Nr:Datum:Temp:Abs-Feuchte:Windchill:Wind:
Aussen-T/F 376 23-10-2020 07:15:00 15.2 C 11.81 g/m*3 15.2 C 1.6 km/h
377 23-10-2020 07:20:00 15.2 C 11.81 g/m*3 15.2 C 0 km/h
378 23-10-2020 07:25:00 15.2 C 11.94 g/m*3 15.2 C 0 km/h
379 23-10-2020 07:30:00 15.1 C 11.87 g/m*3 15.1 C 0 km/h
380 23-10-2020 07:35:00 15.1 C 11.87 g/m*3 15.1 C 0 km/h
381 23-10-2020 07:40:00 15 C 11.8 g/m*3 15 C 1.6 km/h
382 23-10-2020 07:45:00 15 C 11.93 g/m*3 15 C 1.6 km/h
383 23-10-2020 07:50:00 14.9 C 11.73 g/m*3 14.9 C 0 km/h
384 23-10-2020 07:55:00 14.9 C 11.85 g/m*3 14.9 C 0 km/h
385 23-10-2020 08:00:00 14.9 C 11.85 g/m*3 14.9 C 0 km/h
386 23-10-2020 08:05:00 14.8 C 11.78 g/m*3 14.8 C 0 km/h
387 23-10-2020 08:10:00 14.8 C 11.78 g/m*3 14.8 C 0 km/h
388 23-10-2020 08:15:00 14.8 C 11.78 g/m*3 14.8 C 0 km/h
389 23-10-2020 08:20:00 14.8 C 11.91 g/m*3 14.8 C 0 km/h
390 23-10-2020 08:25:00 14.8 C 11.91 g/m*3 14.8 C 0 km/h
391 23-10-2020 08:30:00 14.8 C 11.91 g/m*3 14.8 C 0 km/h
392 23-10-2020 08:35:00 14.7 C 11.83 g/m*3 14.7 C 0 km/h
393 23-10-2020 08:40:00 14.7 C 11.83 g/m*3 14.7 C 0 km/h
394 23-10-2020 08:45:00 14.7 C 11.83 g/m*3 14.7 C 0 km/h
395 23-10-2020 08:50:00 14.7 C 11.83 g/m*3 14.7 C 0 km/h
396 23-10-2020 08:55:00 14.7 C 11.83 g/m*3 14.7 C 0 km/h
397 23-10-2020 09:00:00 14.7 C 11.83 g/m*3 14.7 C 0 km/h
398 23-10-2020 09:05:00 14.6 C 11.76 g/m*3 14.6 C 0 km/h
399 23-10-2020 09:10:00 14.6 C 11.76 g/m*3 14.6 C 0 km/h
400 23-10-2020 09:15:00 14.6 C 11.89 g/m*3 14.6 C 0 km/h
Sensor: Nr:Datum:Temp:Abs-Feuchte:Windchill:Wind:
Aussen-T/F 401 23-10-2020 09:20:00 14.6 C 11.89 g/m*3 14.6 C 0 km/h
402 23-10-2020 09:25:00 14.6 C 11.89 g/m*3 14.6 C 0 km/h
403 23-10-2020 09:30:00 14.6 C 11.89 g/m*3 14.6 C 0 km/h
404 23-10-2020 09:35:00 14.7 C 11.96 g/m*3 14.7 C 0 km/h
405 23-10-2020 09:40:00 14.7 C 11.96 g/m*3 14.7 C 0 km/h
406 23-10-2020 09:45:00 14.7 C 11.96 g/m*3 14.7 C 0 km/h
407 23-10-2020 09:50:00 14.7 C 11.96 g/m*3 14.7 C 0 km/h
408 23-10-2020 09:55:00 14.7 C 11.96 g/m*3 14.7 C 0 km/h
409 23-10-2020 10:00:00 14.7 C 11.96 g/m*3 14.7 C 0 km/h
410 23-10-2020 10:05:00 14.7 C 11.96 g/m*3 14.7 C 0 km/h
411 23-10-2020 10:10:00 14.7 C 11.96 g/m*3 14.7 C 0 km/h
412 23-10-2020 10:15:00 14.7 C 11.96 g/m*3 14.7 C 0 km/h
413 23-10-2020 10:20:00 14.7 C 11.96 g/m*3 14.7 C 0 km/h
414 23-10-2020 10:25:00 14.7 C 11.96 g/m*3 14.7 C 0 km/h
415 23-10-2020 10:30:00 14.7 C 11.96 g/m*3 14.7 C 0 km/h
416 23-10-2020 10:35:00 14.7 C 11.96 g/m*3 14.7 C 0 km/h
417 23-10-2020 10:40:00 14.8 C 12.03 g/m*3 14.8 C 0 km/h
418 23-10-2020 10:45:00 14.8 C 12.03 g/m*3 14.8 C 0 km/h
419 23-10-2020 10:50:00 14.9 C 12.24 g/m*3 14.9 C 0 km/h
420 23-10-2020 10:55:00 15 C 12.31 g/m*3 15 C 0 km/h
421 23-10-2020 11:00:00 15.1 C 12.39 g/m*3 15.1 C 0 km/h
422 23-10-2020 11:05:00 15.1 C 12.39 g/m*3 15.1 C 0 km/h
423 23-10-2020 11:10:00 15.1 C 12.39 g/m*3 15.1 C 0 km/h
424 23-10-2020 11:15:00 15.3 C 12.54 g/m*3 15.3 C 0 km/h
425 23-10-2020 11:20:00 15.3 C 12.54 g/m*3 15.3 C 0 km/h
Sensor: Nr:Datum:Temp:Abs-Feuchte:Windchill:Wind:
Aussen-T/F 426 23-10-2020 11:25:00 15.3 C 12.54 g/m*3 15.3 C 0 km/h
427 23-10-2020 11:30:00 15.3 C 12.54 g/m*3 15.3 C 0 km/h
428 23-10-2020 11:35:00 15.4 C 12.61 g/m*3 15.4 C 0 km/h
429 23-10-2020 11:40:00 15.3 C 12.54 g/m*3 15.3 C 0 km/h
430 23-10-2020 11:45:00 15.3 C 12.54 g/m*3 15.3 C 0 km/h
431 23-10-2020 11:50:00 15.3 C 12.54 g/m*3 15.3 C 0 km/h
432 23-10-2020 11:55:00 15.3 C 12.54 g/m*3 15.3 C 0 km/h
433 23-10-2020 12:00:00 15.3 C 12.54 g/m*3 15.3 C 0 km/h
434 23-10-2020 12:05:00 15.3 C 12.54 g/m*3 15.3 C 0 km/h
435 23-10-2020 12:10:00 15.4 C 12.61 g/m*3 15.4 C 0 km/h
436 23-10-2020 12:15:00 15.4 C 12.61 g/m*3 15.4 C 0 km/h
437 23-10-2020 12:20:00 15.4 C 12.61 g/m*3 15.4 C 0 km/h
438 23-10-2020 12:25:00 15.4 C 12.61 g/m*3 15.4 C 0 km/h
439 23-10-2020 12:30:00 15.4 C 12.61 g/m*3 15.4 C 0 km/h
440 23-10-2020 12:35:00 15.4 C 12.61 g/m*3 15.4 C 1.6 km/h
441 23-10-2020 12:40:00 15.6 C 12.77 g/m*3 15.6 C 0 km/h
442 23-10-2020 12:45:00 15.8 C 12.92 g/m*3 15.8 C 0 km/h
443 23-10-2020 12:50:00 15.8 C 12.92 g/m*3 15.8 C 3.2 km/h
444 23-10-2020 12:55:00 15.7 C 12.71 g/m*3 15.7 C 3.2 km/h
445 23-10-2020 13:00:00 15.8 C 12.79 g/m*3 15.8 C 1.6 km/h
446 23-10-2020 13:05:00 15.8 C 12.92 g/m*3 15.8 C 0 km/h
447 23-10-2020 13:10:00 15.9 C 13 g/m*3 15.9 C 0 km/h
448 23-10-2020 13:15:00 15.8 C 12.79 g/m*3 15.8 C 1.6 km/h
449 23-10-2020 13:20:00 15.8 C 12.79 g/m*3 15.8 C 1.6 km/h
450 23-10-2020 13:25:00 15.8 C 12.79 g/m*3 15.8 C 3.2 km/h
Sensor: Nr:Datum:Temp:Abs-Feuchte:Windchill:Wind:
Aussen-T/F 451 23-10-2020 13:30:00 15.8 C 12.79 g/m*3 15.8 C 0 km/h
452 23-10-2020 13:35:00 15.8 C 12.79 g/m*3 15.8 C 0 km/h
453 23-10-2020 13:40:00 15.9 C 12.87 g/m*3 15.9 C 1.6 km/h
454 23-10-2020 13:45:00 15.9 C 12.87 g/m*3 15.9 C 1.6 km/h
455 23-10-2020 13:50:00 15.9 C 12.87 g/m*3 15.9 C 0 km/h
456 23-10-2020 13:55:00 16 C 12.94 g/m*3 16 C 1.6 km/h
457 23-10-2020 14:00:00 16.1 C 13.02 g/m*3 16.1 C 0 km/h
458 23-10-2020 14:05:00 16.1 C 13.02 g/m*3 16.1 C 0 km/h
459 23-10-2020 14:10:00 16.1 C 13.02 g/m*3 16.1 C 0 km/h
460 23-10-2020 14:15:00 16.2 C 13.1 g/m*3 16.2 C 3.2 km/h
461 23-10-2020 14:20:00 16.2 C 12.96 g/m*3 16.2 C 1.6 km/h
462 23-10-2020 14:25:00 16.2 C 12.96 g/m*3 16.2 C 1.6 km/h
463 23-10-2020 14:30:00 16.3 C 13.04 g/m*3 16.3 C 0 km/h
464 23-10-2020 14:35:00 16.3 C 13.04 g/m*3 16.3 C 0 km/h
465 23-10-2020 14:40:00 16.4 C 13.12 g/m*3 16.4 C 1.6 km/h
466 23-10-2020 14:45:00 16.3 C 12.9 g/m*3 16.3 C 1.6 km/h
467 23-10-2020 14:50:00 16.3 C 12.9 g/m*3 16.3 C 1.6 km/h
468 23-10-2020 14:55:00 16.3 C 12.76 g/m*3 16.3 C 6.4 km/h
469 23-10-2020 15:00:00 16.4 C 12.84 g/m*3 16.4 C 4.8 km/h
470 23-10-2020 15:05:00 16.4 C 12.84 g/m*3 16.4 C 0 km/h
471 23-10-2020 15:10:00 16.5 C 12.92 g/m*3 16.5 C 3.2 km/h
472 23-10-2020 15:15:00 16.6 C 13 g/m*3 16.6 C 6.4 km/h
473 23-10-2020 15:20:00 16.6 C 13 g/m*3 16.6 C 1.6 km/h
474 23-10-2020 15:25:00 16.5 C 12.64 g/m*3 16.5 C 6.4 km/h
475 23-10-2020 15:30:00 16.6 C 12.71 g/m*3 16.6 C 3.2 km/h
Sensor: Nr:Datum:Temp:Abs-Feuchte:Windchill:Wind:
Aussen-T/F 476 23-10-2020 15:35:00 16.6 C 12.71 g/m*3 16.6 C 0 km/h
477 23-10-2020 15:40:00 16.7 C 12.79 g/m*3 16.7 C 1.6 km/h
478 23-10-2020 15:45:00 16.7 C 12.79 g/m*3 16.7 C 0 km/h
479 23-10-2020 15:50:00 16.7 C 12.65 g/m*3 16.7 C 6.4 km/h
480 23-10-2020 15:55:00 16.7 C 12.79 g/m*3 16.7 C 3.2 km/h
481 23-10-2020 16:00:00 16.7 C 12.79 g/m*3 16.7 C 3.2 km/h
482 23-10-2020 16:05:00 16.7 C 12.79 g/m*3 16.7 C 1.6 km/h
483 23-10-2020 16:10:00 16.7 C 12.79 g/m*3 16.7 C 0 km/h
484 23-10-2020 16:15:00 16.7 C 12.79 g/m*3 16.7 C 0 km/h
485 23-10-2020 16:20:00 16.7 C 12.79 g/m*3 16.7 C 3.2 km/h
486 23-10-2020 16:25:00 16.6 C 12.71 g/m*3 16.6 C 1.6 km/h
487 23-10-2020 16:30:00 16.6 C 12.71 g/m*3 16.6 C 1.6 km/h
488 23-10-2020 16:35:00 16.6 C 12.71 g/m*3 16.6 C 0 km/h
489 23-10-2020 16:40:00 16.4 C 12.42 g/m*3 16.4 C 8.1 km/h
490 23-10-2020 16:45:00 16.4 C 12.42 g/m*3 16.4 C 1.6 km/h
491 23-10-2020 16:50:00 16.3 C 12.49 g/m*3 16.3 C 3.2 km/h
492 23-10-2020 16:55:00 16.3 C 12.62 g/m*3 16.3 C 1.6 km/h
493 23-10-2020 17:00:00 16.2 C 12.55 g/m*3 16.2 C 3.2 km/h
494 23-10-2020 17:05:00 16.2 C 12.55 g/m*3 16.2 C 1.6 km/h
495 23-10-2020 17:10:00 16.1 C 12.47 g/m*3 16.1 C 1.6 km/h
496 23-10-2020 17:15:00 15.9 C 12.32 g/m*3 15.9 C 8.1 km/h
497 23-10-2020 17:20:00 15.9 C 12.46 g/m*3 15.9 C 1.6 km/h
498 23-10-2020 17:25:00 15.8 C 12.38 g/m*3 15.8 C 1.6 km/h
499 23-10-2020 17:30:00 15.8 C 12.38 g/m*3 15.8 C 0 km/h
500 23-10-2020 17:35:00 15.7 C 12.31 g/m*3 15.7 C 1.6 km/h
Sensor: Nr:Datum:Temp:Abs-Feuchte:Windchill:Wind:
Aussen-T/F 501 23-10-2020 17:40:00 15.6 C 12.23 g/m*3 15.6 C 3.2 km/h
502 23-10-2020 17:45:00 15.5 C 12.16 g/m*3 15.5 C 1.6 km/h
503 23-10-2020 17:50:00 15.4 C 12.22 g/m*3 15.4 C 4.8 km/h
504 23-10-2020 17:55:00 15.4 C 12.22 g/m*3 15.4 C 4.8 km/h
505 23-10-2020 18:00:00 15.4 C 12.22 g/m*3 15.4 C 0 km/h
506 23-10-2020 18:05:00 15.4 C 12.22 g/m*3 15.4 C 1.6 km/h
507 23-10-2020 18:10:00 15.4 C 12.22 g/m*3 15.4 C 0 km/h
508 23-10-2020 18:15:00 15.3 C 12.01 g/m*3 15.3 C 3.2 km/h
509 23-10-2020 18:20:00 15.3 C 12.01 g/m*3 15.3 C 1.6 km/h
510 23-10-2020 18:25:00 15.2 C 11.94 g/m*3 15.2 C 1.6 km/h
511 23-10-2020 18:30:00 15.1 C 12 g/m*3 15.1 C 4.8 km/h
512 23-10-2020 18:35:00 15 C 11.93 g/m*3 15 C 4.8 km/h
513 23-10-2020 18:40:00 14.9 C 11.85 g/m*3 14.9 C 6.4 km/h
514 23-10-2020 18:45:00 14.8 C 11.78 g/m*3 14.8 C 4.8 km/h
515 23-10-2020 18:50:00 14.7 C 11.71 g/m*3 14.7 C 3.2 km/h
516 23-10-2020 18:55:00 14.6 C 11.64 g/m*3 14.6 C 4.8 km/h
517 23-10-2020 19:00:00 14.5 C 11.57 g/m*3 14.5 C 4.8 km/h
518 23-10-2020 19:05:00 14.4 C 11.5 g/m*3 14.4 C 6.4 km/h
519 23-10-2020 19:10:00 14.4 C 11.5 g/m*3 14.4 C 6.4 km/h
520 23-10-2020 19:15:00 14.3 C 11.43 g/m*3 14.3 C 4.8 km/h
521 23-10-2020 19:20:00 14.3 C 11.43 g/m*3 14.3 C 1.6 km/h
522 23-10-2020 19:25:00 14.2 C 11.36 g/m*3 14.2 C 3.2 km/h
523 23-10-2020 19:30:00 14.2 C 11.36 g/m*3 14.2 C 8.1 km/h
524 23-10-2020 19:35:00 14.2 C 11.36 g/m*3 14.2 C 4.8 km/h
525 23-10-2020 19:40:00 14.1 C 11.29 g/m*3 14.1 C 3.2 km/h
Sensor: Nr:Datum:Temp:Abs-Feuchte:Windchill:Wind:
Aussen-T/F 526 23-10-2020 19:45:00 14 C 11.22 g/m*3 14 C 3.2 km/h
527 23-10-2020 19:50:00 13.9 C 11.15 g/m*3 13.9 C 3.2 km/h
528 23-10-2020 19:55:00 13.8 C 11.08 g/m*3 13.8 C 3.2 km/h
529 23-10-2020 20:00:00 13.7 C 11.01 g/m*3 13.7 C 3.2 km/h
530 23-10-2020 20:05:00 13.7 C 11.13 g/m*3 13.7 C 1.6 km/h
531 23-10-2020 20:10:00 13.6 C 11.06 g/m*3 13.6 C 3.2 km/h
532 23-10-2020 20:15:00 13.6 C 11.06 g/m*3 13.6 C 3.2 km/h
533 23-10-2020 20:20:00 13.5 C 10.99 g/m*3 13.5 C 3.2 km/h
534 23-10-2020 20:25:00 13.4 C 10.93 g/m*3 13.4 C 1.6 km/h
535 23-10-2020 20:30:00 13.3 C 10.86 g/m*3 13.3 C 0 km/h
536 23-10-2020 20:35:00 13.3 C 10.86 g/m*3 13.3 C 0 km/h
537 23-10-2020 20:40:00 13.2 C 10.79 g/m*3 13.2 C 3.2 km/h
538 23-10-2020 20:45:00 13.1 C 10.73 g/m*3 13.1 C 1.6 km/h
539 23-10-2020 20:50:00 13.1 C 10.84 g/m*3 13.1 C 3.2 km/h
540 23-10-2020 20:55:00 13.1 C 10.73 g/m*3 13.1 C 1.6 km/h
541 23-10-2020 21:00:00 12.9 C 10.59 g/m*3 12.9 C 1.6 km/h
542 23-10-2020 21:05:00 12.9 C 10.59 g/m*3 12.9 C 0 km/h
543 23-10-2020 21:10:00 12.9 C 10.71 g/m*3 12.9 C 4.8 km/h
544 23-10-2020 21:15:00 12.9 C 10.71 g/m*3 12.9 C 3.2 km/h
545 23-10-2020 21:20:00 12.9 C 10.71 g/m*3 12.9 C 0 km/h
546 23-10-2020 21:25:00 12.8 C 10.64 g/m*3 12.8 C 1.6 km/h
547 23-10-2020 21:30:00 12.8 C 10.64 g/m*3 12.8 C 1.6 km/h
548 23-10-2020 21:35:00 12.8 C 10.64 g/m*3 12.8 C 0 km/h
549 23-10-2020 21:40:00 12.7 C 10.58 g/m*3 12.7 C 0 km/h
550 23-10-2020 21:45:00 12.6 C 10.51 g/m*3 12.6 C 4.8 km/h
Sensor: Nr:Datum:Temp:Abs-Feuchte:Windchill:Wind:
Aussen-T/F 551 23-10-2020 21:50:00 12.8 C 10.75 g/m*3 12.8 C 8.1 km/h
552 23-10-2020 21:55:00 13 C 10.89 g/m*3 13 C 11.3 km/h
553 23-10-2020 22:00:00 13.2 C 11.02 g/m*3 13.2 C 8.1 km/h
554 23-10-2020 22:05:00 13.3 C 11.09 g/m*3 13.3 C 3.2 km/h
555 23-10-2020 22:10:00 13.3 C 11.09 g/m*3 13.3 C 6.4 km/h
556 23-10-2020 22:15:00 13.3 C 11.09 g/m*3 13.3 C 8.1 km/h
557 23-10-2020 22:20:00 13.4 C 11.16 g/m*3 13.4 C 3.2 km/h
558 23-10-2020 22:25:00 13.4 C 11.16 g/m*3 13.4 C 1.6 km/h
559 23-10-2020 22:30:00 13.3 C 11.09 g/m*3 13.3 C 1.6 km/h
560 23-10-2020 22:35:00 13.2 C 10.91 g/m*3 13.2 C 0 km/h
561 23-10-2020 22:40:00 13.1 C 10.84 g/m*3 13.1 C 0 km/h
562 23-10-2020 22:45:00 13 C 10.77 g/m*3 13 C 0 km/h
563 23-10-2020 22:50:00 12.9 C 10.71 g/m*3 12.9 C 3.2 km/h
564 23-10-2020 22:55:00 12.7 C 10.58 g/m*3 12.7 C 3.2 km/h
565 23-10-2020 23:00:00 12.6 C 10.51 g/m*3 12.6 C 0 km/h
566 23-10-2020 23:05:00 12.5 C 10.44 g/m*3 12.5 C 0 km/h
567 23-10-2020 23:10:00 12.5 C 10.44 g/m*3 12.5 C 0 km/h
568 23-10-2020 23:15:00 12.4 C 10.38 g/m*3 12.4 C 0 km/h
569 23-10-2020 23:20:00 12.3 C 10.32 g/m*3 12.3 C 3.2 km/h
570 23-10-2020 23:25:00 12.3 C 10.42 g/m*3 12.3 C 4.8 km/h
571 23-10-2020 23:30:00 12.2 C 10.36 g/m*3 12.2 C 3.2 km/h
572 23-10-2020 23:35:00 12.2 C 10.25 g/m*3 12.2 C 4.8 km/h
573 23-10-2020 23:40:00 12.2 C 10.36 g/m*3 12.2 C 8.1 km/h
574 23-10-2020 23:45:00 12.4 C 10.49 g/m*3 12.4 C 8.1 km/h
575 23-10-2020 23:50:00 12.6 C 10.62 g/m*3 12.6 C 6.4 km/h
Sensor: Nr:Datum:Temp:Abs-Feuchte:Windchill:Wind:
Aussen-T/F 576 23-10-2020 23:55:00 12.7 C 10.69 g/m*3 12.7 C 8.1 km/h
577 24-10-2020 00:00:00 12.7 C 10.69 g/m*3 12.7 C 8.1 km/h
578 24-10-2020 00:05:00 12.7 C 10.69 g/m*3 12.7 C 9.7 km/h
579 24-10-2020 00:10:00 12.8 C 10.75 g/m*3 12.8 C 8.1 km/h
580 24-10-2020 00:15:00 12.8 C 10.75 g/m*3 12.8 C 8.1 km/h
581 24-10-2020 00:20:00 12.8 C 10.75 g/m*3 12.8 C 11.3 km/h
582 24-10-2020 00:25:00 12.8 C 10.75 g/m*3 12.8 C 6.4 km/h
583 24-10-2020 00:30:00 12.8 C 10.75 g/m*3 12.8 C 11.3 km/h
584 24-10-2020 00:35:00 12.8 C 10.75 g/m*3 12.8 C 8.1 km/h
585 24-10-2020 00:40:00 12.8 C 10.75 g/m*3 12.8 C 6.4 km/h
586 24-10-2020 00:45:00 12.8 C 10.64 g/m*3 12.8 C 8.1 km/h
587 24-10-2020 00:50:00 12.7 C 10.58 g/m*3 12.7 C 6.4 km/h
588 24-10-2020 00:55:00 12.7 C 10.58 g/m*3 12.7 C 4.8 km/h
589 24-10-2020 01:00:00 12.7 C 10.58 g/m*3 12.7 C 4.8 km/h
590 24-10-2020 01:05:00 12.6 C 10.51 g/m*3 12.6 C 4.8 km/h
591 24-10-2020 01:10:00 12.6 C 10.51 g/m*3 12.6 C 3.2 km/h
592 24-10-2020 01:15:00 12.5 C 10.44 g/m*3 12.5 C 6.4 km/h
593 24-10-2020 01:20:00 12.5 C 10.44 g/m*3 12.5 C 6.4 km/h
594 24-10-2020 01:25:00 12.5 C 10.44 g/m*3 12.5 C 6.4 km/h
595 24-10-2020 01:30:00 12.6 C 10.51 g/m*3 12.6 C 11.3 km/h
596 24-10-2020 01:35:00 12.7 C 10.58 g/m*3 12.7 C 11.3 km/h
597 24-10-2020 01:40:00 12.8 C 10.64 g/m*3 12.8 C 11.3 km/h
598 24-10-2020 01:45:00 12.8 C 10.53 g/m*3 12.8 C 8.1 km/h
599 24-10-2020 01:50:00 12.8 C 10.53 g/m*3 12.8 C 6.4 km/h
600 24-10-2020 01:55:00 12.8 C 10.53 g/m*3 12.8 C 3.2 km/h
Sensor: Nr:Datum:Temp:Abs-Feuchte:Windchill:Wind:
Aussen-T/F 601 24-10-2020 02:00:00 12.8 C 10.53 g/m*3 12.8 C 4.8 km/h
602 24-10-2020 02:05:00 12.7 C 10.46 g/m*3 12.7 C 6.4 km/h
603 24-10-2020 02:10:00 12.8 C 10.53 g/m*3 12.8 C 6.4 km/h
604 24-10-2020 02:15:00 12.7 C 10.46 g/m*3 12.7 C 0 km/h
605 24-10-2020 02:20:00 12.6 C 10.4 g/m*3 12.6 C 0 km/h
606 24-10-2020 02:25:00 12.4 C 10.16 g/m*3 12.4 C 0 km/h
607 24-10-2020 02:30:00 12.3 C 10.21 g/m*3 12.3 C 0 km/h
608 24-10-2020 02:35:00 12.3 C 10.21 g/m*3 12.3 C 0 km/h
609 24-10-2020 02:40:00 12.2 C 10.14 g/m*3 12.2 C 0 km/h
610 24-10-2020 02:45:00 12 C 10.02 g/m*3 12 C 0 km/h
611 24-10-2020 02:50:00 11.9 C 9.96 g/m*3 11.9 C 0 km/h
612 24-10-2020 02:55:00 11.8 C 9.89 g/m*3 11.8 C 1.6 km/h
613 24-10-2020 03:00:00 11.8 C 9.89 g/m*3 11.8 C 0 km/h
614 24-10-2020 03:05:00 11.8 C 10 g/m*3 11.8 C 4.8 km/h
615 24-10-2020 03:10:00 11.8 C 10 g/m*3 11.8 C 1.6 km/h
616 24-10-2020 03:15:00 11.7 C 9.83 g/m*3 11.7 C 0 km/h
617 24-10-2020 03:20:00 11.6 C 9.77 g/m*3 11.6 C 0 km/h
618 24-10-2020 03:25:00 11.5 C 9.71 g/m*3 11.5 C 0 km/h
619 24-10-2020 03:30:00 11.4 C 9.75 g/m*3 11.4 C 0 km/h
620 24-10-2020 03:35:00 11.3 C 9.69 g/m*3 11.3 C 0 km/h
621 24-10-2020 03:40:00 11.3 C 9.69 g/m*3 11.3 C 0 km/h
622 24-10-2020 03:45:00 11.3 C 9.69 g/m*3 11.3 C 0 km/h
623 24-10-2020 03:50:00 11.3 C 9.69 g/m*3 11.3 C 0 km/h
624 24-10-2020 03:55:00 11.2 C 9.63 g/m*3 11.2 C 0 km/h
625 24-10-2020 04:00:00 11.1 C 9.57 g/m*3 11.1 C 0 km/h
Sensor: Nr:Datum:Temp:Abs-Feuchte:Windchill:Wind:
Aussen-T/F 626 24-10-2020 04:05:00 11.1 C 9.57 g/m*3 11.1 C 0 km/h
627 24-10-2020 04:10:00 10.9 C 9.45 g/m*3 10.9 C 0 km/h
628 24-10-2020 04:15:00 10.9 C 9.45 g/m*3 10.9 C 0 km/h
629 24-10-2020 04:20:00 10.9 C 9.45 g/m*3 10.9 C 0 km/h
630 24-10-2020 04:25:00 11 C 9.61 g/m*3 11 C 0 km/h
631 24-10-2020 04:30:00 11 C 9.61 g/m*3 11 C 0 km/h
632 24-10-2020 04:35:00 11.1 C 9.67 g/m*3 11.1 C 0 km/h
633 24-10-2020 04:40:00 11.1 C 9.67 g/m*3 11.1 C 0 km/h
634 24-10-2020 04:45:00 11.1 C 9.67 g/m*3 11.1 C 0 km/h
635 24-10-2020 04:50:00 11.2 C 9.73 g/m*3 11.2 C 0 km/h
636 24-10-2020 04:55:00 11.1 C 9.67 g/m*3 11.1 C 0 km/h
637 24-10-2020 05:00:00 11 C 9.61 g/m*3 11 C 0 km/h
638 24-10-2020 05:05:00 10.9 C 9.55 g/m*3 10.9 C 0 km/h
639 24-10-2020 05:10:00 10.9 C 9.55 g/m*3 10.9 C 0 km/h
640 24-10-2020 05:15:00 10.9 C 9.55 g/m*3 10.9 C 0 km/h
641 24-10-2020 05:20:00 10.9 C 9.55 g/m*3 10.9 C 0 km/h
642 24-10-2020 05:25:00 11.1 C 9.67 g/m*3 11.1 C 0 km/h
643 24-10-2020 05:30:00 11.1 C 9.67 g/m*3 11.1 C 3.2 km/h
644 24-10-2020 05:35:00 11.2 C 9.73 g/m*3 11.2 C 3.2 km/h
645 24-10-2020 05:40:00 11.2 C 9.73 g/m*3 11.2 C 0 km/h
646 24-10-2020 05:45:00 11.1 C 9.67 g/m*3 11.1 C 1.6 km/h
647 24-10-2020 05:50:00 11.1 C 9.67 g/m*3 11.1 C 1.6 km/h
648 24-10-2020 05:55:00 11 C 9.61 g/m*3 11 C 3.2 km/h
649 24-10-2020 06:00:00 11 C 9.61 g/m*3 11 C 3.2 km/h
650 24-10-2020 06:05:00 11 C 9.61 g/m*3 11 C 0 km/h
Sensor: Nr:Datum:Temp:Abs-Feuchte:Windchill:Wind:
Aussen-T/F 651 24-10-2020 06:10:00 11 C 9.61 g/m*3 11 C 1.6 km/h
652 24-10-2020 06:15:00 11.1 C 9.67 g/m*3 11.1 C 1.6 km/h
653 24-10-2020 06:20:00 11.1 C 9.67 g/m*3 11.1 C 1.6 km/h
654 24-10-2020 06:25:00 11.1 C 9.67 g/m*3 11.1 C 3.2 km/h
655 24-10-2020 06:30:00 11.1 C 9.67 g/m*3 11.1 C 1.6 km/h
656 24-10-2020 06:35:00 11.2 C 9.73 g/m*3 11.2 C 0 km/h
657 24-10-2020 06:40:00 11.2 C 9.73 g/m*3 11.2 C 0 km/h
658 24-10-2020 06:45:00 11.3 C 9.89 g/m*3 11.3 C 1.6 km/h
659 24-10-2020 06:50:00 11.3 C 9.79 g/m*3 11.3 C 1.6 km/h
660 24-10-2020 06:55:00 11.3 C 9.79 g/m*3 11.3 C 0 km/h
661 24-10-2020 07:00:00 11.4 C 9.96 g/m*3 11.4 C 0 km/h
662 24-10-2020 07:05:00 11.4 C 9.96 g/m*3 11.4 C 3.2 km/h
663 24-10-2020 07:10:00 11.5 C 10.02 g/m*3 11.5 C 8.1 km/h
664 24-10-2020 07:15:00 11.6 C 10.08 g/m*3 11.6 C 1.6 km/h
665 24-10-2020 07:20:00 11.6 C 10.08 g/m*3 11.6 C 0 km/h
666 24-10-2020 07:25:00 11.7 C 10.15 g/m*3 11.7 C 1.6 km/h
667 24-10-2020 07:30:00 11.7 C 10.15 g/m*3 11.7 C 0 km/h
668 24-10-2020 07:35:00 11.8 C 10.21 g/m*3 11.8 C 0 km/h
669 24-10-2020 07:40:00 11.8 C 10.21 g/m*3 11.8 C 0 km/h
670 24-10-2020 07:45:00 11.8 C 10.21 g/m*3 11.8 C 0 km/h
671 24-10-2020 07:50:00 11.8 C 10.21 g/m*3 11.8 C 8.1 km/h
672 24-10-2020 07:55:00 11.8 C 10.21 g/m*3 11.8 C 4.8 km/h
673 24-10-2020 08:00:00 11.7 C 10.15 g/m*3 11.7 C 1.6 km/h
674 24-10-2020 08:05:00 11.6 C 9.98 g/m*3 11.6 C 6.4 km/h
675 24-10-2020 08:10:00 11.7 C 10.15 g/m*3 11.7 C 11.3 km/h
Sensor: Nr:Datum:Temp:Abs-Feuchte:Windchill:Wind:
Aussen-T/F 676 24-10-2020 08:15:00 11.9 C 10.27 g/m*3 11.9 C 12.9 km/h
677 24-10-2020 08:20:00 11.9 C 10.17 g/m*3 11.9 C 3.2 km/h
678 24-10-2020 08:25:00 11.9 C 10.17 g/m*3 11.9 C 9.7 km/h
679 24-10-2020 08:30:00 12 C 10.23 g/m*3 12 C 8.1 km/h
680 24-10-2020 08:35:00 12 C 10.23 g/m*3 12 C 4.8 km/h
681 24-10-2020 08:40:00 12.1 C 10.29 g/m*3 12.1 C 14.5 km/h
682 24-10-2020 08:45:00 12.2 C 10.25 g/m*3 12.2 C 11.3 km/h
683 24-10-2020 08:50:00 12.3 C 10.32 g/m*3 12.3 C 12.9 km/h
684 24-10-2020 08:55:00 12.3 C 10.21 g/m*3 12.3 C 11.3 km/h
685 24-10-2020 09:00:00 12.4 C 10.27 g/m*3 12.4 C 9.7 km/h
686 24-10-2020 09:05:00 12.6 C 10.29 g/m*3 12.6 C 19.3 km/h
687 24-10-2020 09:10:00 12.6 C 10.18 g/m*3 12.6 C 12.9 km/h
688 24-10-2020 09:15:00 12.8 C 10.19 g/m*3 12.8 C 24.1 km/h
689 24-10-2020 09:20:00 13 C 10.21 g/m*3 13 C 20.9 km/h
690 24-10-2020 09:25:00 13.1 C 10.16 g/m*3 13.1 C 14.5 km/h
691 24-10-2020 09:30:00 13.2 C 10.1 g/m*3 13.2 C 25.7 km/h
692 24-10-2020 09:35:00 13.2 C 10.1 g/m*3 13.2 C 19.3 km/h
693 24-10-2020 09:40:00 13.2 C 9.99 g/m*3 13.2 C 17.7 km/h
694 24-10-2020 09:45:00 13.3 C 10.05 g/m*3 13.3 C 30.6 km/h
695 24-10-2020 09:50:00 13.3 C 10.05 g/m*3 13.3 C 11.3 km/h
696 24-10-2020 09:55:00 13.3 C 10.05 g/m*3 13.3 C 17.7 km/h
697 24-10-2020 10:00:00 13.3 C 10.05 g/m*3 13.3 C 19.3 km/h
698 24-10-2020 10:05:00 13.3 C 9.94 g/m*3 13.3 C 17.7 km/h
699 24-10-2020 10:10:00 13.4 C 10.11 g/m*3 13.4 C 16.1 km/h
700 24-10-2020 10:15:00 13.4 C 10 g/m*3 13.4 C 12.9 km/h
Sensor: Nr:Datum:Temp:Abs-Feuchte:Windchill:Wind:
Aussen-T/F 701 24-10-2020 10:20:00 13.4 C 10 g/m*3 13.4 C 12.9 km/h
702 24-10-2020 10:25:00 13.4 C 10.11 g/m*3 13.4 C 16.1 km/h
703 24-10-2020 10:30:00 13.4 C 10 g/m*3 13.4 C 11.3 km/h
704 24-10-2020 10:35:00 13.4 C 10 g/m*3 13.4 C 14.5 km/h
705 24-10-2020 10:40:00 13.5 C 9.94 g/m*3 13.5 C 16.1 km/h
706 24-10-2020 10:45:00 13.6 C 10 g/m*3 13.6 C 12.9 km/h
707 24-10-2020 10:50:00 13.6 C 10 g/m*3 13.6 C 12.9 km/h
708 24-10-2020 10:55:00 13.6 C 9.65 g/m*3 13.6 C 16.1 km/h
709 24-10-2020 11:00:00 13.6 C 9.42 g/m*3 13.6 C 25.7 km/h
710 24-10-2020 11:05:00 13.4 C 9.18 g/m*3 13.4 C 16.1 km/h
711 24-10-2020 11:10:00 13.4 C 9.07 g/m*3 13.4 C 19.3 km/h
712 24-10-2020 11:15:00 13.3 C 9.01 g/m*3 13.3 C 24.1 km/h
713 24-10-2020 11:20:00 13.3 C 9.01 g/m*3 13.3 C 20.9 km/h
714 24-10-2020 11:25:00 13.3 C 9.01 g/m*3 13.3 C 24.1 km/h
715 24-10-2020 11:30:00 13.3 C 9.01 g/m*3 13.3 C 17.7 km/h
716 24-10-2020 11:35:00 13.2 C 8.96 g/m*3 13.2 C 12.9 km/h
717 24-10-2020 11:40:00 13.3 C 9.01 g/m*3 13.3 C 12.9 km/h
718 24-10-2020 11:45:00 13.3 C 9.01 g/m*3 13.3 C 16.1 km/h
719 24-10-2020 11:50:00 13.4 C 9.07 g/m*3 13.4 C 14.5 km/h
720 24-10-2020 11:55:00 13.6 C 9.18 g/m*3 13.6 C 14.5 km/h
721 24-10-2020 12:00:00 13.8 C 9.29 g/m*3 13.8 C 12.9 km/h
722 24-10-2020 12:05:00 13.9 C 9.23 g/m*3 13.9 C 14.5 km/h
723 24-10-2020 12:10:00 14.1 C 9.47 g/m*3 14.1 C 12.9 km/h
724 24-10-2020 12:15:00 14.2 C 9.4 g/m*3 14.2 C 9.7 km/h
725 24-10-2020 12:20:00 14.3 C 9.58 g/m*3 14.3 C 11.3 km/h
Sensor: Nr:Datum:Temp:Abs-Feuchte:Windchill:Wind:
Aussen-T/F 726 24-10-2020 12:25:00 14.4 C 9.52 g/m*3 14.4 C 16.1 km/h
727 24-10-2020 12:30:00 14.6 C 9.64 g/m*3 14.6 C 12.9 km/h
728 24-10-2020 12:35:00 14.6 C 9.51 g/m*3 14.6 C 8.1 km/h
729 24-10-2020 12:40:00 14.7 C 9.69 g/m*3 14.7 C 4.8 km/h
730 24-10-2020 12:45:00 14.8 C 9.5 g/m*3 14.8 C 4.8 km/h
731 24-10-2020 12:50:00 14.9 C 9.81 g/m*3 14.9 C 8.1 km/h
732 24-10-2020 12:55:00 15.1 C 9.8 g/m*3 15.1 C 4.8 km/h
733 24-10-2020 13:00:00 15.2 C 9.86 g/m*3 15.2 C 6.4 km/h
734 24-10-2020 13:05:00 15.2 C 9.73 g/m*3 15.2 C 4.8 km/h
735 24-10-2020 13:10:00 15.3 C 9.92 g/m*3 15.3 C 6.4 km/h
736 24-10-2020 13:15:00 15.3 C 9.92 g/m*3 15.3 C 6.4 km/h
737 24-10-2020 13:20:00 15.3 C 9.79 g/m*3 15.3 C 9.7 km/h
738 24-10-2020 13:25:00 15.3 C 9.79 g/m*3 15.3 C 9.7 km/h
739 24-10-2020 13:30:00 15.4 C 9.99 g/m*3 15.4 C 8.1 km/h
740 24-10-2020 13:35:00 15.3 C 9.79 g/m*3 15.3 C 9.7 km/h
741 24-10-2020 13:40:00 15.3 C 9.92 g/m*3 15.3 C 4.8 km/h
742 24-10-2020 13:45:00 15.3 C 9.92 g/m*3 15.3 C 9.7 km/h
743 24-10-2020 13:50:00 15.3 C 9.92 g/m*3 15.3 C 9.7 km/h
744 24-10-2020 13:55:00 15.2 C 9.86 g/m*3 15.2 C 9.7 km/h
745 24-10-2020 14:00:00 15.3 C 10.06 g/m*3 15.3 C 6.4 km/h
746 24-10-2020 14:05:00 15.2 C 9.99 g/m*3 15.2 C 6.4 km/h
747 24-10-2020 14:10:00 15.2 C 9.99 g/m*3 15.2 C 11.3 km/h
748 24-10-2020 14:15:00 15.2 C 9.86 g/m*3 15.2 C 12.9 km/h
749 24-10-2020 14:20:00 15.2 C 10.12 g/m*3 15.2 C 9.7 km/h
750 24-10-2020 14:25:00 15.2 C 9.86 g/m*3 15.2 C 11.3 km/h
Sensor: Nr:Datum:Temp:Abs-Feuchte:Windchill:Wind:
Aussen-T/F 751 24-10-2020 14:30:00 15.3 C 10.06 g/m*3 15.3 C 6.4 km/h
752 24-10-2020 14:35:00 15.3 C 9.92 g/m*3 15.3 C 4.8 km/h
753 24-10-2020 14:40:00 15.3 C 10.19 g/m*3 15.3 C 1.6 km/h
754 24-10-2020 14:45:00 15.4 C 10.25 g/m*3 15.4 C 4.8 km/h
755 24-10-2020 14:50:00 15.4 C 10.12 g/m*3 15.4 C 6.4 km/h
756 24-10-2020 14:55:00 15.4 C 9.99 g/m*3 15.4 C 4.8 km/h
757 24-10-2020 15:00:00 15.4 C 9.99 g/m*3 15.4 C 8.1 km/h
758 24-10-2020 15:05:00 15.4 C 9.99 g/m*3 15.4 C 6.4 km/h
759 24-10-2020 15:10:00 15.4 C 9.99 g/m*3 15.4 C 6.4 km/h
760 24-10-2020 15:15:00 15.4 C 10.12 g/m*3 15.4 C 4.8 km/h
761 24-10-2020 15:20:00 15.4 C 10.12 g/m*3 15.4 C 6.4 km/h
762 24-10-2020 15:25:00 15.4 C 10.12 g/m*3 15.4 C 12.9 km/h
763 24-10-2020 15:30:00 15.5 C 10.31 g/m*3 15.5 C 4.8 km/h
764 24-10-2020 15:35:00 15.5 C 10.18 g/m*3 15.5 C 4.8 km/h
765 24-10-2020 15:40:00 15.6 C 10.37 g/m*3 15.6 C 1.6 km/h
766 24-10-2020 15:45:00 15.6 C 10.24 g/m*3 15.6 C 6.4 km/h
767 24-10-2020 15:50:00 15.5 C 10.18 g/m*3 15.5 C 8.1 km/h
768 24-10-2020 15:55:00 15.4 C 10.25 g/m*3 15.4 C 8.1 km/h
769 24-10-2020 16:00:00 15.4 C 10.25 g/m*3 15.4 C 3.2 km/h
770 24-10-2020 16:05:00 15.4 C 10.25 g/m*3 15.4 C 6.4 km/h
771 24-10-2020 16:10:00 15.3 C 10.19 g/m*3 15.3 C 6.4 km/h
772 24-10-2020 16:15:00 15.3 C 10.19 g/m*3 15.3 C 8.1 km/h
773 24-10-2020 16:20:00 15.3 C 10.19 g/m*3 15.3 C 6.4 km/h
774 24-10-2020 16:25:00 15.3 C 10.32 g/m*3 15.3 C 3.2 km/h
775 24-10-2020 16:30:00 15.2 C 10.25 g/m*3 15.2 C 0 km/h
Sensor: Nr:Datum:Temp:Abs-Feuchte:Windchill:Wind:
Aussen-T/F 776 24-10-2020 16:35:00 15.2 C 10.25 g/m*3 15.2 C 0 km/h
777 24-10-2020 16:40:00 15.3 C 10.45 g/m*3 15.3 C 0 km/h
778 24-10-2020 16:45:00 15.2 C 10.25 g/m*3 15.2 C 4.8 km/h
779 24-10-2020 16:50:00 15.2 C 10.25 g/m*3 15.2 C 6.4 km/h
780 24-10-2020 16:55:00 15.2 C 10.25 g/m*3 15.2 C 4.8 km/h
781 24-10-2020 17:00:00 15.2 C 10.25 g/m*3 15.2 C 0 km/h
782 24-10-2020 17:05:00 15.2 C 10.38 g/m*3 15.2 C 4.8 km/h
783 24-10-2020 17:10:00 15.2 C 10.38 g/m*3 15.2 C 8.1 km/h
784 24-10-2020 17:15:00 15.1 C 10.32 g/m*3 15.1 C 6.4 km/h
785 24-10-2020 17:20:00 15.1 C 10.32 g/m*3 15.1 C 4.8 km/h
786 24-10-2020 17:25:00 15.1 C 10.32 g/m*3 15.1 C 3.2 km/h
787 24-10-2020 17:30:00 15.1 C 10.45 g/m*3 15.1 C 0 km/h
788 24-10-2020 17:35:00 15 C 10.39 g/m*3 15 C 0 km/h
789 24-10-2020 17:40:00 14.9 C 10.32 g/m*3 14.9 C 1.6 km/h
790 24-10-2020 17:45:00 14.8 C 10.26 g/m*3 14.8 C 1.6 km/h
791 24-10-2020 17:50:00 14.8 C 10.13 g/m*3 14.8 C 1.6 km/h
792 24-10-2020 17:55:00 14.8 C 10.26 g/m*3 14.8 C 3.2 km/h
793 24-10-2020 18:00:00 14.7 C 10.32 g/m*3 14.7 C 0 km/h
794 24-10-2020 18:05:00 14.7 C 10.2 g/m*3 14.7 C 4.8 km/h
795 24-10-2020 18:10:00 14.7 C 10.2 g/m*3 14.7 C 1.6 km/h
796 24-10-2020 18:15:00 14.7 C 10.2 g/m*3 14.7 C 4.8 km/h
797 24-10-2020 18:20:00 14.7 C 10.32 g/m*3 14.7 C 1.6 km/h
798 24-10-2020 18:25:00 14.7 C 10.2 g/m*3 14.7 C 3.2 km/h
799 24-10-2020 18:30:00 14.6 C 10.26 g/m*3 14.6 C 3.2 km/h
800 24-10-2020 18:35:00 14.6 C 10.39 g/m*3 14.6 C 1.6 km/h
Sensor: Nr:Datum:Temp:Abs-Feuchte:Windchill:Wind:
Aussen-T/F 801 24-10-2020 18:40:00 14.5 C 10.32 g/m*3 14.5 C 3.2 km/h
802 24-10-2020 18:45:00 14.4 C 10.26 g/m*3 14.4 C 1.6 km/h
803 24-10-2020 18:50:00 14.3 C 10.2 g/m*3 14.3 C 6.4 km/h
804 24-10-2020 18:55:00 14.3 C 10.32 g/m*3 14.3 C 4.8 km/h
805 24-10-2020 19:00:00 14.2 C 10.26 g/m*3 14.2 C 0 km/h
806 24-10-2020 19:05:00 14.2 C 10.26 g/m*3 14.2 C 6.4 km/h
807 24-10-2020 19:10:00 14.3 C 10.32 g/m*3 14.3 C 3.2 km/h
808 24-10-2020 19:15:00 14.3 C 10.32 g/m*3 14.3 C 0 km/h
809 24-10-2020 19:20:00 14.3 C 10.32 g/m*3 14.3 C 1.6 km/h
810 24-10-2020 19:25:00 14.3 C 10.32 g/m*3 14.3 C 8.1 km/h
811 24-10-2020 19:30:00 14.3 C 10.32 g/m*3 14.3 C 3.2 km/h
812 24-10-2020 19:35:00 14.3 C 10.32 g/m*3 14.3 C 4.8 km/h
813 24-10-2020 19:40:00 14.3 C 10.32 g/m*3 14.3 C 3.2 km/h
814 24-10-2020 19:45:00 14.3 C 10.44 g/m*3 14.3 C 0 km/h
815 24-10-2020 19:50:00 14.2 C 10.26 g/m*3 14.2 C 6.4 km/h
816 24-10-2020 19:55:00 14.2 C 10.26 g/m*3 14.2 C 1.6 km/h
817 24-10-2020 20:00:00 14.2 C 10.26 g/m*3 14.2 C 3.2 km/h
818 24-10-2020 20:05:00 14.2 C 10.26 g/m*3 14.2 C 4.8 km/h
819 24-10-2020 20:10:00 14.3 C 10.32 g/m*3 14.3 C 6.4 km/h
820 24-10-2020 20:15:00 14.3 C 10.32 g/m*3 14.3 C 1.6 km/h
821 24-10-2020 20:20:00 14.3 C 10.32 g/m*3 14.3 C 3.2 km/h
822 24-10-2020 20:25:00 14.3 C 10.32 g/m*3 14.3 C 4.8 km/h
823 24-10-2020 20:30:00 14.3 C 10.44 g/m*3 14.3 C 0 km/h
824 24-10-2020 20:35:00 14.3 C 10.44 g/m*3 14.3 C 9.7 km/h
825 24-10-2020 20:40:00 14.3 C 10.44 g/m*3 14.3 C 4.8 km/h
Sensor: Nr:Datum:Temp:Abs-Feuchte:Windchill:Wind:
Aussen-T/F 826 24-10-2020 20:45:00 14.3 C 10.44 g/m*3 14.3 C 9.7 km/h
827 24-10-2020 20:50:00 14.2 C 10.38 g/m*3 14.2 C 6.4 km/h
828 24-10-2020 20:55:00 14.2 C 10.38 g/m*3 14.2 C 6.4 km/h
829 24-10-2020 21:00:00 14.2 C 10.38 g/m*3 14.2 C 4.8 km/h
830 24-10-2020 21:05:00 14.2 C 10.5 g/m*3 14.2 C 3.2 km/h
831 24-10-2020 21:10:00 14.1 C 10.44 g/m*3 14.1 C 4.8 km/h
832 24-10-2020 21:15:00 14.1 C 10.44 g/m*3 14.1 C 3.2 km/h
833 24-10-2020 21:20:00 14.1 C 10.44 g/m*3 14.1 C 4.8 km/h
834 24-10-2020 21:25:00 14.1 C 10.44 g/m*3 14.1 C 1.6 km/h
835 24-10-2020 21:30:00 14.1 C 10.44 g/m*3 14.1 C 0 km/h
836 24-10-2020 21:35:00 14.1 C 10.44 g/m*3 14.1 C 0 km/h
837 24-10-2020 21:40:00 14.1 C 10.44 g/m*3 14.1 C 0 km/h
838 24-10-2020 21:45:00 14 C 10.37 g/m*3 14 C 1.6 km/h
839 24-10-2020 21:50:00 14.1 C 10.44 g/m*3 14.1 C 6.4 km/h
840 24-10-2020 21:55:00 14.1 C 10.44 g/m*3 14.1 C 6.4 km/h
841 24-10-2020 22:00:00 14.1 C 10.44 g/m*3 14.1 C 1.6 km/h
842 24-10-2020 22:05:00 14.1 C 10.44 g/m*3 14.1 C 1.6 km/h
843 24-10-2020 22:10:00 14.1 C 10.44 g/m*3 14.1 C 8.1 km/h
844 24-10-2020 22:15:00 14.1 C 10.56 g/m*3 14.1 C 4.8 km/h
845 24-10-2020 22:20:00 14 C 10.49 g/m*3 14 C 4.8 km/h
846 24-10-2020 22:25:00 14 C 10.49 g/m*3 14 C 0 km/h
847 24-10-2020 22:30:00 13.9 C 10.43 g/m*3 13.9 C 8.1 km/h
848 24-10-2020 22:35:00 13.8 C 10.37 g/m*3 13.8 C 1.6 km/h
849 24-10-2020 22:40:00 13.8 C 10.37 g/m*3 13.8 C 4.8 km/h
850 24-10-2020 22:45:00 13.8 C 10.37 g/m*3 13.8 C 1.6 km/h
Sensor: Nr:Datum:Temp:Abs-Feuchte:Windchill:Wind:
Aussen-T/F 851 24-10-2020 22:50:00 13.8 C 10.37 g/m*3 13.8 C 3.2 km/h
852 24-10-2020 22:55:00 13.8 C 10.37 g/m*3 13.8 C 4.8 km/h
853 24-10-2020 23:00:00 13.8 C 10.37 g/m*3 13.8 C 3.2 km/h
854 24-10-2020 23:05:00 13.8 C 10.37 g/m*3 13.8 C 0 km/h
855 24-10-2020 23:10:00 13.8 C 10.37 g/m*3 13.8 C 9.7 km/h
856 24-10-2020 23:15:00 13.9 C 10.43 g/m*3 13.9 C 6.4 km/h
857 24-10-2020 23:20:00 13.9 C 10.43 g/m*3 13.9 C 3.2 km/h
858 24-10-2020 23:25:00 13.9 C 10.43 g/m*3 13.9 C 6.4 km/h
859 24-10-2020 23:30:00 13.9 C 10.43 g/m*3 13.9 C 3.2 km/h
860 24-10-2020 23:35:00 13.9 C 10.43 g/m*3 13.9 C 1.6 km/h
861 24-10-2020 23:40:00 13.9 C 10.31 g/m*3 13.9 C 8.1 km/h
862 24-10-2020 23:45:00 14 C 10.37 g/m*3 14 C 0 km/h
863 24-10-2020 23:50:00 14 C 10.37 g/m*3 14 C 1.6 km/h
864 24-10-2020 23:55:00 14.1 C 10.44 g/m*3 14.1 C 3.2 km/h
865 25-10-2020 00:00:00 14.1 C 10.44 g/m*3 14.1 C 1.6 km/h
866 25-10-2020 00:05:00 14.1 C 10.44 g/m*3 14.1 C 4.8 km/h
867 25-10-2020 00:10:00 14.1 C 10.44 g/m*3 14.1 C 9.7 km/h
868 25-10-2020 00:15:00 14.1 C 10.32 g/m*3 14.1 C 6.4 km/h
869 25-10-2020 00:20:00 14.2 C 10.38 g/m*3 14.2 C 3.2 km/h
870 25-10-2020 00:25:00 14.2 C 10.38 g/m*3 14.2 C 1.6 km/h
871 25-10-2020 00:30:00 14.2 C 10.38 g/m*3 14.2 C 4.8 km/h
872 25-10-2020 00:35:00 14.3 C 10.44 g/m*3 14.3 C 4.8 km/h
873 25-10-2020 00:40:00 14.3 C 10.44 g/m*3 14.3 C 6.4 km/h
874 25-10-2020 00:45:00 14.2 C 10.38 g/m*3 14.2 C 3.2 km/h
875 25-10-2020 00:50:00 14.2 C 10.38 g/m*3 14.2 C 6.4 km/h
Sensor: Nr:Datum:Temp:Abs-Feuchte:Windchill:Wind:
Aussen-T/F 876 25-10-2020 00:55:00 14.2 C 10.38 g/m*3 14.2 C 1.6 km/h
877 25-10-2020 01:00:00 14.2 C 10.38 g/m*3 14.2 C 3.2 km/h
878 25-10-2020 01:05:00 14.2 C 10.38 g/m*3 14.2 C 0 km/h
879 25-10-2020 01:10:00 14.3 C 10.44 g/m*3 14.3 C 3.2 km/h
880 25-10-2020 01:15:00 14.3 C 10.32 g/m*3 14.3 C 6.4 km/h
881 25-10-2020 01:20:00 14.3 C 10.32 g/m*3 14.3 C 0 km/h
882 25-10-2020 01:25:00 14.3 C 10.44 g/m*3 14.3 C 0 km/h
883 25-10-2020 01:30:00 14.3 C 10.32 g/m*3 14.3 C 0 km/h
884 25-10-2020 01:35:00 14.3 C 10.32 g/m*3 14.3 C 1.6 km/h
885 25-10-2020 01:40:00 14.3 C 10.32 g/m*3 14.3 C 3.2 km/h
886 25-10-2020 01:45:00 14.3 C 10.32 g/m*3 14.3 C 1.6 km/h
887 25-10-2020 01:50:00 14.4 C 10.26 g/m*3 14.4 C 4.8 km/h
888 25-10-2020 01:55:00 14.4 C 10.26 g/m*3 14.4 C 6.4 km/h
889 25-10-2020 02:00:00 14.5 C 10.32 g/m*3 14.5 C 4.8 km/h
890 25-10-2020 02:05:00 14.6 C 10.39 g/m*3 14.6 C 4.8 km/h
891 25-10-2020 02:10:00 14.6 C 10.26 g/m*3 14.6 C 9.7 km/h
892 25-10-2020 02:15:00 14.6 C 10.26 g/m*3 14.6 C 3.2 km/h
893 25-10-2020 02:20:00 14.6 C 10.14 g/m*3 14.6 C 1.6 km/h
894 25-10-2020 02:25:00 14.6 C 10.14 g/m*3 14.6 C 3.2 km/h
895 25-10-2020 02:30:00 14.5 C 10.2 g/m*3 14.5 C 3.2 km/h
896 25-10-2020 02:35:00 14.4 C 10.14 g/m*3 14.4 C 3.2 km/h
897 25-10-2020 02:40:00 14.3 C 10.07 g/m*3 14.3 C 8.1 km/h
898 25-10-2020 02:45:00 14.2 C 10.01 g/m*3 14.2 C 3.2 km/h
899 25-10-2020 02:50:00 14.2 C 10.01 g/m*3 14.2 C 4.8 km/h
900 25-10-2020 02:55:00 14.1 C 10.07 g/m*3 14.1 C 0 km/h
Sensor: Nr:Datum:Temp:Abs-Feuchte:Windchill:Wind:
Aussen-T/F 901 25-10-2020 04:00:00 14 C 10.01 g/m*3 14 C 1.6 km/h
902 25-10-2020 04:05:00 13.7 C 9.83 g/m*3 13.7 C 9.7 km/h
903 25-10-2020 04:05:00 13.3 C 9.7 g/m*3 13.3 C 3.2 km/h
904 25-10-2020 04:10:00 13.7 C 9.83 g/m*3 13.7 C 8.1 km/h
905 25-10-2020 04:10:00 13.3 C 9.59 g/m*3 13.3 C 11.3 km/h
906 25-10-2020 04:15:00 13.7 C 9.83 g/m*3 13.7 C 1.6 km/h
907 25-10-2020 04:15:00 13.3 C 9.59 g/m*3 13.3 C 3.2 km/h
908 25-10-2020 04:20:00 13.3 C 9.59 g/m*3 13.3 C 3.2 km/h
909 25-10-2020 04:20:00 13.6 C 9.77 g/m*3 13.6 C 6.4 km/h
910 25-10-2020 04:25:00 13.2 C 9.64 g/m*3 13.2 C 0 km/h
911 25-10-2020 04:25:00 13.6 C 9.77 g/m*3 13.6 C 4.8 km/h
912 25-10-2020 04:30:00 13.2 C 9.64 g/m*3 13.2 C 0 km/h
913 25-10-2020 04:30:00 13.6 C 9.77 g/m*3 13.6 C 1.6 km/h
914 25-10-2020 04:35:00 13.2 C 9.53 g/m*3 13.2 C 8.1 km/h
915 25-10-2020 04:35:00 13.6 C 9.77 g/m*3 13.6 C 1.6 km/h
916 25-10-2020 04:40:00 13.5 C 9.71 g/m*3 13.5 C 4.8 km/h
917 25-10-2020 04:40:00 13.2 C 9.53 g/m*3 13.2 C 8.1 km/h
918 25-10-2020 04:45:00 13.5 C 9.71 g/m*3 13.5 C 6.4 km/h
919 25-10-2020 04:45:00 13.2 C 9.53 g/m*3 13.2 C 3.2 km/h
920 25-10-2020 04:50:00 13.4 C 9.76 g/m*3 13.4 C 0 km/h
921 25-10-2020 04:50:00 13.1 C 9.47 g/m*3 13.1 C 0 km/h
922 25-10-2020 04:55:00 13.4 C 9.65 g/m*3 13.4 C 4.8 km/h
923 25-10-2020 04:55:00 13.1 C 9.47 g/m*3 13.1 C 4.8 km/h
924 25-10-2020 05:00:00 13.1 C 9.47 g/m*3 13.1 C 4.8 km/h
925 25-10-2020 05:00:00 13.3 C 9.7 g/m*3 13.3 C 4.8 km/h
Sensor: Nr:Datum:Temp:Abs-Feuchte:Windchill:Wind:
Aussen-T/F 926 25-10-2020 05:05:00 13.1 C 9.59 g/m*3 13.1 C 0 km/h
927 25-10-2020 05:10:00 13 C 9.53 g/m*3 13 C 3.2 km/h
928 25-10-2020 05:15:00 12.9 C 9.47 g/m*3 12.9 C 0 km/h
929 25-10-2020 05:20:00 12.8 C 9.41 g/m*3 12.8 C 3.2 km/h
930 25-10-2020 05:25:00 12.8 C 9.41 g/m*3 12.8 C 3.2 km/h
931 25-10-2020 05:30:00 12.7 C 9.46 g/m*3 12.7 C 0 km/h
932 25-10-2020 05:35:00 12.7 C 9.46 g/m*3 12.7 C 1.6 km/h
933 25-10-2020 05:40:00 12.7 C 9.46 g/m*3 12.7 C 1.6 km/h
934 25-10-2020 05:45:00 12.6 C 9.4 g/m*3 12.6 C 0 km/h
935 25-10-2020 05:50:00 12.6 C 9.4 g/m*3 12.6 C 1.6 km/h
936 25-10-2020 05:55:00 12.5 C 9.35 g/m*3 12.5 C 3.2 km/h
937 25-10-2020 06:00:00 12.4 C 9.4 g/m*3 12.4 C 1.6 km/h
938 25-10-2020 06:05:00 12.3 C 9.34 g/m*3 12.3 C 0 km/h
939 25-10-2020 06:10:00 12.2 C 9.28 g/m*3 12.2 C 0 km/h
940 25-10-2020 06:15:00 12.1 C 9.22 g/m*3 12.1 C 0 km/h
941 25-10-2020 06:20:00 11.9 C 9.21 g/m*3 11.9 C 0 km/h
942 25-10-2020 06:25:00 11.8 C 9.16 g/m*3 11.8 C 0 km/h
943 25-10-2020 06:30:00 11.8 C 9.26 g/m*3 11.8 C 0 km/h
944 25-10-2020 06:35:00 11.8 C 9.26 g/m*3 11.8 C 3.2 km/h
945 25-10-2020 06:40:00 11.7 C 9.2 g/m*3 11.7 C 1.6 km/h
946 25-10-2020 06:45:00 11.7 C 9.2 g/m*3 11.7 C 0 km/h
947 25-10-2020 06:50:00 11.6 C 9.15 g/m*3 11.6 C 1.6 km/h
948 25-10-2020 06:55:00 11.5 C 9.19 g/m*3 11.5 C 0 km/h
949 25-10-2020 07:00:00 11.4 C 9.14 g/m*3 11.4 C 0 km/h
950 25-10-2020 07:05:00 11.4 C 9.24 g/m*3 11.4 C 0 km/h
Sensor: Nr:Datum:Temp:Abs-Feuchte:Windchill:Wind:
Aussen-T/F 951 25-10-2020 07:10:00 11.4 C 9.24 g/m*3 11.4 C 0 km/h
952 25-10-2020 07:15:00 11.4 C 9.24 g/m*3 11.4 C 0 km/h
953 25-10-2020 07:20:00 11.5 C 9.3 g/m*3 11.5 C 0 km/h
954 25-10-2020 07:25:00 11.6 C 9.35 g/m*3 11.6 C 8.1 km/h
955 25-10-2020 07:30:00 11.7 C 9.31 g/m*3 11.7 C 6.4 km/h
956 25-10-2020 07:35:00 11.8 C 9.26 g/m*3 11.8 C 4.8 km/h
957 25-10-2020 07:40:00 12.1 C 9.33 g/m*3 12.1 C 3.2 km/h
958 25-10-2020 07:45:00 12.2 C 9.39 g/m*3 12.2 C 1.6 km/h
959 25-10-2020 07:50:00 12.3 C 9.34 g/m*3 12.3 C 6.4 km/h
960 25-10-2020 07:55:00 12.4 C 9.29 g/m*3 12.4 C 3.2 km/h
961 25-10-2020 08:00:00 12.6 C 9.4 g/m*3 12.6 C 0 km/h
962 25-10-2020 08:05:00 12.7 C 9.35 g/m*3 12.7 C 1.6 km/h
963 25-10-2020 08:10:00 12.8 C 9.41 g/m*3 12.8 C 4.8 km/h
964 25-10-2020 08:15:00 12.9 C 9.47 g/m*3 12.9 C 1.6 km/h
965 25-10-2020 08:20:00 12.9 C 9.47 g/m*3 12.9 C 3.2 km/h
966 25-10-2020 08:25:00 13 C 9.3 g/m*3 13 C 4.8 km/h
967 25-10-2020 08:30:00 13.1 C 9.36 g/m*3 13.1 C 4.8 km/h
968 25-10-2020 08:35:00 13.2 C 9.42 g/m*3 13.2 C 3.2 km/h
969 25-10-2020 08:40:00 13.3 C 9.47 g/m*3 13.3 C 1.6 km/h
970 25-10-2020 08:45:00 13.3 C 9.47 g/m*3 13.3 C 3.2 km/h
971 25-10-2020 08:50:00 13.4 C 9.53 g/m*3 13.4 C 1.6 km/h
972 25-10-2020 08:55:00 13.4 C 9.53 g/m*3 13.4 C 1.6 km/h
973 25-10-2020 09:00:00 13.5 C 9.71 g/m*3 13.5 C 0 km/h
974 25-10-2020 09:05:00 13.5 C 9.59 g/m*3 13.5 C 3.2 km/h
975 25-10-2020 09:10:00 13.6 C 9.53 g/m*3 13.6 C 1.6 km/h
Sensor: Nr:Datum:Temp:Abs-Feuchte:Windchill:Wind:
Aussen-T/F 976 25-10-2020 09:15:00 13.6 C 9.65 g/m*3 13.6 C 0 km/h
977 25-10-2020 09:20:00 13.7 C 9.47 g/m*3 13.7 C 4.8 km/h
978 25-10-2020 09:25:00 13.7 C 9.59 g/m*3 13.7 C 1.6 km/h
979 25-10-2020 09:30:00 13.8 C 9.65 g/m*3 13.8 C 4.8 km/h
980 25-10-2020 09:35:00 13.8 C 9.53 g/m*3 13.8 C 3.2 km/h
981 25-10-2020 09:40:00 13.9 C 9.59 g/m*3 13.9 C 0 km/h
982 25-10-2020 09:45:00 14 C 9.65 g/m*3 14 C 1.6 km/h
983 25-10-2020 09:50:00 14.1 C 9.71 g/m*3 14.1 C 6.4 km/h
984 25-10-2020 09:55:00 14.1 C 9.59 g/m*3 14.1 C 4.8 km/h
985 25-10-2020 10:00:00 14.2 C 9.65 g/m*3 14.2 C 4.8 km/h
986 25-10-2020 10:05:00 14.3 C 9.58 g/m*3 14.3 C 4.8 km/h
987 25-10-2020 10:10:00 14.3 C 9.46 g/m*3 14.3 C 4.8 km/h
988 25-10-2020 10:15:00 14.4 C 9.52 g/m*3 14.4 C 4.8 km/h
989 25-10-2020 10:20:00 14.5 C 9.7 g/m*3 14.5 C 6.4 km/h
990 25-10-2020 10:25:00 14.6 C 9.76 g/m*3 14.6 C 3.2 km/h
991 25-10-2020 10:30:00 14.6 C 9.76 g/m*3 14.6 C 3.2 km/h
992 25-10-2020 10:35:00 14.7 C 9.69 g/m*3 14.7 C 3.2 km/h
993 25-10-2020 10:40:00 14.8 C 9.88 g/m*3 14.8 C 1.6 km/h
994 25-10-2020 10:45:00 14.9 C 9.81 g/m*3 14.9 C 6.4 km/h
995 25-10-2020 10:50:00 14.9 C 9.69 g/m*3 14.9 C 3.2 km/h
996 25-10-2020 10:55:00 15 C 9.75 g/m*3 15 C 3.2 km/h
997 25-10-2020 11:00:00 15 C 9.75 g/m*3 15 C 1.6 km/h
998 25-10-2020 11:05:00 15.1 C 9.93 g/m*3 15.1 C 1.6 km/h
999 25-10-2020 11:10:00 15.2 C 9.86 g/m*3 15.2 C 0 km/h
1000 25-10-2020 11:15:00 15.2 C 9.86 g/m*3 15.2 C 4.8 km/h
Sensor: Nr:Datum:Temp:Abs-Feuchte:Windchill:Wind:
Aussen-T/F 1001 25-10-2020 11:20:00 15.3 C 9.92 g/m*3 15.3 C 4.8 km/h
1002 25-10-2020 11:25:00 15.3 C 9.79 g/m*3 15.3 C 4.8 km/h
1003 25-10-2020 11:30:00 15.3 C 9.92 g/m*3 15.3 C 4.8 km/h
1004 25-10-2020 11:35:00 15.3 C 9.79 g/m*3 15.3 C 3.2 km/h
1005 25-10-2020 11:40:00 15.3 C 9.79 g/m*3 15.3 C 3.2 km/h
1006 25-10-2020 11:45:00 15.4 C 9.85 g/m*3 15.4 C 11.3 km/h
1007 25-10-2020 11:50:00 15.4 C 9.72 g/m*3 15.4 C 4.8 km/h
1008 25-10-2020 11:55:00 15.5 C 9.91 g/m*3 15.5 C 4.8 km/h
1009 25-10-2020 12:00:00 15.6 C 9.97 g/m*3 15.6 C 6.4 km/h
1010 25-10-2020 12:05:00 15.6 C 9.97 g/m*3 15.6 C 1.6 km/h
1011 25-10-2020 12:10:00 15.6 C 9.97 g/m*3 15.6 C 1.6 km/h
1012 25-10-2020 12:15:00 15.6 C 9.97 g/m*3 15.6 C 1.6 km/h
1013 25-10-2020 12:20:00 15.6 C 9.97 g/m*3 15.6 C 3.2 km/h
1014 25-10-2020 12:25:00 15.6 C 9.97 g/m*3 15.6 C 0 km/h
1015 25-10-2020 12:30:00 15.6 C 9.97 g/m*3 15.6 C 6.4 km/h
1016 25-10-2020 12:35:00 15.6 C 9.97 g/m*3 15.6 C 4.8 km/h
1017 25-10-2020 12:40:00 15.6 C 10.37 g/m*3 15.6 C 4.8 km/h
1018 25-10-2020 12:45:00 15.5 C 10.31 g/m*3 15.5 C 3.2 km/h
1019 25-10-2020 12:50:00 15.4 C 10.25 g/m*3 15.4 C 1.6 km/h
1020 25-10-2020 12:55:00 15.4 C 10.51 g/m*3 15.4 C 1.6 km/h
1021 25-10-2020 13:00:00 15.3 C 10.19 g/m*3 15.3 C 6.4 km/h
1022 25-10-2020 13:05:00 15.3 C 10.19 g/m*3 15.3 C 4.8 km/h
1023 25-10-2020 13:10:00 15.4 C 10.12 g/m*3 15.4 C 4.8 km/h
1024 25-10-2020 13:15:00 15.6 C 10.37 g/m*3 15.6 C 4.8 km/h
1025 25-10-2020 13:20:00 15.8 C 10.36 g/m*3 15.8 C 8.1 km/h
Sensor: Nr:Datum:Temp:Abs-Feuchte:Windchill:Wind:
Aussen-T/F 1026 25-10-2020 13:25:00 16 C 10.35 g/m*3 16 C 12.9 km/h
1027 25-10-2020 13:30:00 16.2 C 10.34 g/m*3 16.2 C 12.9 km/h
1028 25-10-2020 13:35:00 16.3 C 10.54 g/m*3 16.3 C 1.6 km/h
1029 25-10-2020 13:40:00 16.3 C 10.41 g/m*3 16.3 C 0 km/h
1030 25-10-2020 13:45:00 16.4 C 10.33 g/m*3 16.4 C 1.6 km/h
1031 25-10-2020 13:50:00 16.4 C 10.33 g/m*3 16.4 C 3.2 km/h
1032 25-10-2020 13:55:00 16.4 C 10.33 g/m*3 16.4 C 4.8 km/h
1033 25-10-2020 14:00:00 16.3 C 10.27 g/m*3 16.3 C 11.3 km/h
1034 25-10-2020 14:05:00 16.3 C 10.27 g/m*3 16.3 C 8.1 km/h
1035 25-10-2020 14:10:00 16.2 C 10.34 g/m*3 16.2 C 3.2 km/h
1036 25-10-2020 14:15:00 16.1 C 10.42 g/m*3 16.1 C 1.6 km/h
1037 25-10-2020 14:20:00 15.9 C 10.56 g/m*3 15.9 C 4.8 km/h
1038 25-10-2020 14:25:00 15.8 C 10.36 g/m*3 15.8 C 0 km/h
1039 25-10-2020 14:30:00 15.7 C 10.7 g/m*3 15.7 C 0 km/h
1040 25-10-2020 14:35:00 15.7 C 10.97 g/m*3 15.7 C 1.6 km/h
1041 25-10-2020 14:40:00 15.4 C 10.77 g/m*3 15.4 C 4.8 km/h
1042 25-10-2020 14:45:00 15.2 C 10.9 g/m*3 15.2 C 1.6 km/h
1043 25-10-2020 14:50:00 15 C 10.9 g/m*3 15 C 1.6 km/h
1044 25-10-2020 14:55:00 14.8 C 10.89 g/m*3 14.8 C 3.2 km/h
1045 25-10-2020 15:00:00 14.6 C 10.89 g/m*3 14.6 C 3.2 km/h
1046 25-10-2020 15:05:00 14.4 C 10.88 g/m*3 14.4 C 0 km/h
1047 25-10-2020 15:10:00 14.3 C 10.81 g/m*3 14.3 C 0 km/h
1048 25-10-2020 15:15:00 14.2 C 10.87 g/m*3 14.2 C 0 km/h
1049 25-10-2020 15:20:00 14.1 C 10.8 g/m*3 14.1 C 0 km/h
1050 25-10-2020 15:25:00 14 C 10.86 g/m*3 14 C 1.6 km/h
Sensor: Nr:Datum:Temp:Abs-Feuchte:Windchill:Wind:
Aussen-T/F 1051 25-10-2020 15:30:00 13.9 C 10.79 g/m*3 13.9 C 0 km/h
1052 25-10-2020 15:35:00 13.8 C 10.72 g/m*3 13.8 C 0 km/h
1053 25-10-2020 15:40:00 13.8 C 10.84 g/m*3 13.8 C 0 km/h
1054 25-10-2020 15:45:00 13.8 C 10.84 g/m*3 13.8 C 0 km/h
1055 25-10-2020 15:50:00 13.7 C 10.89 g/m*3 13.7 C 0 km/h
1056 25-10-2020 15:55:00 13.7 C 10.89 g/m*3 13.7 C 0 km/h
1057 25-10-2020 16:00:00 13.7 C 10.89 g/m*3 13.7 C 0 km/h
1058 25-10-2020 16:05:00 13.6 C 10.83 g/m*3 13.6 C 0 km/h
1059 25-10-2020 16:10:00 13.6 C 10.83 g/m*3 13.6 C 1.6 km/h
1060 25-10-2020 16:15:00 13.4 C 10.69 g/m*3 13.4 C 0 km/h
1061 25-10-2020 16:20:00 13.4 C 10.69 g/m*3 13.4 C 4.8 km/h
1062 25-10-2020 16:25:00 13.3 C 10.63 g/m*3 13.3 C 1.6 km/h
1063 25-10-2020 16:30:00 13.2 C 10.68 g/m*3 13.2 C 3.2 km/h
1064 25-10-2020 16:35:00 13.2 C 10.68 g/m*3 13.2 C 0 km/h
1065 25-10-2020 16:40:00 13.1 C 10.61 g/m*3 13.1 C 1.6 km/h
1066 25-10-2020 16:45:00 13 C 10.55 g/m*3 13 C 0 km/h
1067 25-10-2020 16:50:00 12.9 C 10.48 g/m*3 12.9 C 1.6 km/h
1068 25-10-2020 16:55:00 12.9 C 10.48 g/m*3 12.9 C 0 km/h
1069 25-10-2020 17:00:00 12.8 C 10.42 g/m*3 12.8 C 4.8 km/h
1070 25-10-2020 17:05:00 12.7 C 10.35 g/m*3 12.7 C 0 km/h
1071 25-10-2020 17:10:00 12.7 C 10.46 g/m*3 12.7 C 1.6 km/h
1072 25-10-2020 17:15:00 12.6 C 10.4 g/m*3 12.6 C 0 km/h
1073 25-10-2020 17:20:00 12.5 C 10.22 g/m*3 12.5 C 3.2 km/h
1074 25-10-2020 17:25:00 12.4 C 10.16 g/m*3 12.4 C 3.2 km/h
1075 25-10-2020 17:30:00 12.3 C 10.1 g/m*3 12.3 C 4.8 km/h
Sensor: Nr:Datum:Temp:Abs-Feuchte:Windchill:Wind:
Aussen-T/F 1076 25-10-2020 17:35:00 12.3 C 10.21 g/m*3 12.3 C 4.8 km/h
1077 25-10-2020 17:40:00 12.2 C 10.14 g/m*3 12.2 C 1.6 km/h
1078 25-10-2020 17:45:00 12.2 C 10.14 g/m*3 12.2 C 4.8 km/h
1079 25-10-2020 17:50:00 12.1 C 9.97 g/m*3 12.1 C 1.6 km/h
1080 25-10-2020 17:55:00 12.1 C 9.97 g/m*3 12.1 C 3.2 km/h
1081 25-10-2020 18:00:00 12 C 10.02 g/m*3 12 C 3.2 km/h
1082 25-10-2020 18:05:00 11.9 C 9.96 g/m*3 11.9 C 3.2 km/h
1083 25-10-2020 18:10:00 11.9 C 9.96 g/m*3 11.9 C 0 km/h
1084 25-10-2020 18:15:00 11.8 C 9.89 g/m*3 11.8 C 0 km/h
1085 25-10-2020 18:20:00 11.8 C 9.89 g/m*3 11.8 C 3.2 km/h
1086 25-10-2020 18:25:00 11.7 C 9.83 g/m*3 11.7 C 3.2 km/h
1087 25-10-2020 18:30:00 11.7 C 9.83 g/m*3 11.7 C 8.1 km/h
1088 25-10-2020 18:35:00 11.7 C 9.83 g/m*3 11.7 C 3.2 km/h
1089 25-10-2020 18:40:00 11.6 C 9.77 g/m*3 11.6 C 1.6 km/h
1090 25-10-2020 18:45:00 11.6 C 9.77 g/m*3 11.6 C 4.8 km/h
1091 25-10-2020 18:50:00 11.5 C 9.71 g/m*3 11.5 C 4.8 km/h
1092 25-10-2020 18:55:00 11.5 C 9.71 g/m*3 11.5 C 1.6 km/h
1093 25-10-2020 19:00:00 11.4 C 9.65 g/m*3 11.4 C 9.7 km/h
1094 25-10-2020 19:05:00 11.4 C 9.65 g/m*3 11.4 C 8.1 km/h
1095 25-10-2020 19:10:00 11.4 C 9.65 g/m*3 11.4 C 3.2 km/h
1096 25-10-2020 19:15:00 11.4 C 9.65 g/m*3 11.4 C 3.2 km/h
1097 25-10-2020 19:20:00 11.4 C 9.65 g/m*3 11.4 C 3.2 km/h
1098 25-10-2020 19:25:00 11.3 C 9.59 g/m*3 11.3 C 3.2 km/h
1099 25-10-2020 19:30:00 11.3 C 9.59 g/m*3 11.3 C 0 km/h
1100 25-10-2020 19:35:00 11.3 C 9.59 g/m*3 11.3 C 1.6 km/h
Sensor: Nr:Datum:Temp:Abs-Feuchte:Windchill:Wind:
Aussen-T/F 1101 25-10-2020 19:40:00 11.2 C 9.53 g/m*3 11.2 C 8.1 km/h
1102 25-10-2020 19:45:00 11.2 C 9.53 g/m*3 11.2 C 0 km/h
1103 25-10-2020 19:50:00 11.2 C 9.53 g/m*3 11.2 C 0 km/h
1104 25-10-2020 19:55:00 11.2 C 9.53 g/m*3 11.2 C 0 km/h
1105 25-10-2020 20:00:00 11.2 C 9.53 g/m*3 11.2 C 0 km/h
1106 25-10-2020 20:05:00 11.2 C 9.53 g/m*3 11.2 C 3.2 km/h
1107 25-10-2020 20:10:00 11.1 C 9.47 g/m*3 11.1 C 3.2 km/h
1108 25-10-2020 20:15:00 11.1 C 9.57 g/m*3 11.1 C 0 km/h
1109 25-10-2020 20:20:00 11.1 C 9.57 g/m*3 11.1 C 4.8 km/h
1110 25-10-2020 20:25:00 11.1 C 9.57 g/m*3 11.1 C 4.8 km/h
1111 25-10-2020 20:30:00 11 C 9.51 g/m*3 11 C 3.2 km/h
1112 25-10-2020 20:35:00 11 C 9.51 g/m*3 11 C 0 km/h
1113 25-10-2020 20:40:00 10.9 C 9.45 g/m*3 10.9 C 3.2 km/h
1114 25-10-2020 20:45:00 10.9 C 9.45 g/m*3 10.9 C 1.6 km/h
1115 25-10-2020 20:50:00 10.9 C 9.45 g/m*3 10.9 C 3.2 km/h
1116 25-10-2020 20:55:00 10.9 C 9.45 g/m*3 10.9 C 4.8 km/h
1117 25-10-2020 21:00:00 10.9 C 9.45 g/m*3 10.9 C 3.2 km/h
1118 25-10-2020 21:05:00 10.8 C 9.39 g/m*3 10.8 C 3.2 km/h
1119 25-10-2020 21:10:00 10.8 C 9.39 g/m*3 10.8 C 1.6 km/h
1120 25-10-2020 21:15:00 10.8 C 9.39 g/m*3 10.8 C 0 km/h
1121 25-10-2020 21:20:00 10.8 C 9.39 g/m*3 10.8 C 0 km/h
1122 25-10-2020 21:25:00 10.8 C 9.39 g/m*3 10.8 C 0 km/h
1123 25-10-2020 21:30:00 10.8 C 9.39 g/m*3 10.8 C 0 km/h
1124 25-10-2020 21:35:00 10.7 C 9.33 g/m*3 10.7 C 0 km/h
1125 25-10-2020 21:40:00 10.7 C 9.33 g/m*3 10.7 C 0 km/h
Sensor: Nr:Datum:Temp:Abs-Feuchte:Windchill:Wind:
Aussen-T/F 1126 25-10-2020 21:45:00 10.7 C 9.33 g/m*3 10.7 C 1.6 km/h
1127 25-10-2020 21:50:00 10.7 C 9.33 g/m*3 10.7 C 1.6 km/h
1128 25-10-2020 21:55:00 10.7 C 9.33 g/m*3 10.7 C 0 km/h
1129 25-10-2020 22:00:00 10.7 C 9.33 g/m*3 10.7 C 0 km/h
1130 25-10-2020 22:05:00 10.7 C 9.33 g/m*3 10.7 C 0 km/h
1131 25-10-2020 22:10:00 10.7 C 9.33 g/m*3 10.7 C 0 km/h
1132 25-10-2020 22:15:00 10.6 C 9.27 g/m*3 10.6 C 0 km/h
1133 25-10-2020 22:20:00 10.6 C 9.27 g/m*3 10.6 C 0 km/h
1134 25-10-2020 22:25:00 10.6 C 9.27 g/m*3 10.6 C 0 km/h
1135 25-10-2020 22:30:00 10.5 C 9.21 g/m*3 10.5 C 0 km/h
1136 25-10-2020 22:35:00 10.6 C 9.37 g/m*3 10.6 C 0 km/h
1137 25-10-2020 22:40:00 10.6 C 9.37 g/m*3 10.6 C 0 km/h
1138 25-10-2020 22:45:00 10.6 C 9.37 g/m*3 10.6 C 1.6 km/h
1139 25-10-2020 22:50:00 10.6 C 9.37 g/m*3 10.6 C 1.6 km/h
1140 25-10-2020 22:55:00 10.6 C 9.37 g/m*3 10.6 C 3.2 km/h
1141 25-10-2020 23:00:00 10.6 C 9.37 g/m*3 10.6 C 1.6 km/h
1142 25-10-2020 23:05:00 10.6 C 9.37 g/m*3 10.6 C 0 km/h
1143 25-10-2020 23:10:00 10.6 C 9.37 g/m*3 10.6 C 0 km/h
1144 25-10-2020 23:15:00 10.7 C 9.43 g/m*3 10.7 C 0 km/h
1145 25-10-2020 23:20:00 10.7 C 9.43 g/m*3 10.7 C 0 km/h
1146 25-10-2020 23:25:00 10.7 C 9.43 g/m*3 10.7 C 1.6 km/h
1147 25-10-2020 23:30:00 10.7 C 9.43 g/m*3 10.7 C 0 km/h
1148 25-10-2020 23:35:00 10.7 C 9.43 g/m*3 10.7 C 1.6 km/h
1149 25-10-2020 23:40:00 10.7 C 9.43 g/m*3 10.7 C 0 km/h
1150 25-10-2020 23:45:00 10.7 C 9.43 g/m*3 10.7 C 0 km/h
Sensor: Nr:Datum:Temp:Abs-Feuchte:Windchill:Wind:
Aussen-T/F 1151 25-10-2020 23:50:00 10.7 C 9.43 g/m*3 10.7 C 0 km/h
1152 25-10-2020 23:55:00 10.7 C 9.43 g/m*3 10.7 C 0 km/h
1153 26-10-2020 00:00:00 10.7 C 9.43 g/m*3 10.7 C 0 km/h
1154 26-10-2020 00:05:00 10.7 C 9.43 g/m*3 10.7 C 1.6 km/h
1155 26-10-2020 00:10:00 10.7 C 9.43 g/m*3 10.7 C 0 km/h
1156 26-10-2020 00:15:00 10.7 C 9.43 g/m*3 10.7 C 0 km/h
1157 26-10-2020 00:20:00 10.7 C 9.43 g/m*3 10.7 C 0 km/h
1158 26-10-2020 00:25:00 10.7 C 9.43 g/m*3 10.7 C 1.6 km/h
1159 26-10-2020 00:30:00 10.7 C 9.43 g/m*3 10.7 C 0 km/h
1160 26-10-2020 00:35:00 10.7 C 9.43 g/m*3 10.7 C 0 km/h
1161 26-10-2020 00:40:00 10.7 C 9.43 g/m*3 10.7 C 0 km/h
1162 26-10-2020 00:45:00 10.7 C 9.43 g/m*3 10.7 C 4.8 km/h
1163 26-10-2020 00:50:00 10.7 C 9.43 g/m*3 10.7 C 4.8 km/h
1164 26-10-2020 00:55:00 10.7 C 9.43 g/m*3 10.7 C 1.6 km/h
1165 26-10-2020 01:00:00 10.7 C 9.43 g/m*3 10.7 C 0 km/h
1166 26-10-2020 01:05:00 10.7 C 9.43 g/m*3 10.7 C 0 km/h
1167 26-10-2020 01:10:00 10.7 C 9.43 g/m*3 10.7 C 0 km/h
1168 26-10-2020 01:15:00 10.7 C 9.43 g/m*3 10.7 C 0 km/h
1169 26-10-2020 01:20:00 10.7 C 9.43 g/m*3 10.7 C 0 km/h
1170 26-10-2020 01:25:00 10.7 C 9.43 g/m*3 10.7 C 0 km/h
1171 26-10-2020 01:30:00 10.7 C 9.43 g/m*3 10.7 C 0 km/h
1172 26-10-2020 01:35:00 10.7 C 9.43 g/m*3 10.7 C 1.6 km/h
1173 26-10-2020 01:40:00 10.6 C 9.37 g/m*3 10.6 C 0 km/h
1174 26-10-2020 01:45:00 10.6 C 9.37 g/m*3 10.6 C 0 km/h
1175 26-10-2020 01:50:00 10.6 C 9.37 g/m*3 10.6 C 0 km/h
Sensor: Nr:Datum:Temp:Abs-Feuchte:Windchill:Wind:
Aussen-T/F 1176 26-10-2020 01:55:00 10.6 C 9.37 g/m*3 10.6 C 1.6 km/h
1177 26-10-2020 02:00:00 10.6 C 9.37 g/m*3 10.6 C 0 km/h
1178 26-10-2020 02:05:00 10.7 C 9.43 g/m*3 10.7 C 0 km/h
1179 26-10-2020 02:10:00 10.7 C 9.43 g/m*3 10.7 C 1.6 km/h
1180 26-10-2020 02:15:00 10.7 C 9.43 g/m*3 10.7 C 4.8 km/h
1181 26-10-2020 02:20:00 10.7 C 9.33 g/m*3 10.7 C 3.2 km/h
1182 26-10-2020 02:25:00 10.7 C 9.33 g/m*3 10.7 C 1.6 km/h
1183 26-10-2020 02:30:00 10.7 C 9.33 g/m*3 10.7 C 0 km/h
1184 26-10-2020 02:35:00 10.7 C 9.33 g/m*3 10.7 C 0 km/h
1185 26-10-2020 02:40:00 10.6 C 9.27 g/m*3 10.6 C 3.2 km/h
1186 26-10-2020 02:45:00 10.6 C 9.27 g/m*3 10.6 C 0 km/h
1187 26-10-2020 02:50:00 10.6 C 9.27 g/m*3 10.6 C 0 km/h
1188 26-10-2020 02:55:00 10.6 C 9.27 g/m*3 10.6 C 1.6 km/h
1189 26-10-2020 03:00:00 10.6 C 9.27 g/m*3 10.6 C 0 km/h
1190 26-10-2020 03:05:00 10.6 C 9.27 g/m*3 10.6 C 0 km/h
1191 26-10-2020 03:10:00 10.6 C 9.27 g/m*3 10.6 C 1.6 km/h
1192 26-10-2020 03:15:00 10.6 C 9.27 g/m*3 10.6 C 1.6 km/h
1193 26-10-2020 03:20:00 10.6 C 9.27 g/m*3 10.6 C 0 km/h
1194 26-10-2020 03:25:00 10.7 C 9.33 g/m*3 10.7 C 3.2 km/h
1195 26-10-2020 03:30:00 10.7 C 9.33 g/m*3 10.7 C 3.2 km/h
1196 26-10-2020 03:35:00 10.7 C 9.33 g/m*3 10.7 C 0 km/h
1197 26-10-2020 03:40:00 10.7 C 9.33 g/m*3 10.7 C 0 km/h
1198 26-10-2020 03:45:00 10.7 C 9.33 g/m*3 10.7 C 0 km/h
1199 26-10-2020 03:50:00 10.7 C 9.33 g/m*3 10.7 C 0 km/h
1200 26-10-2020 03:55:00 10.7 C 9.33 g/m*3 10.7 C 0 km/h
Sensor: Nr:Datum:Temp:Abs-Feuchte:Windchill:Wind:
Aussen-T/F 1201 26-10-2020 04:00:00 10.7 C 9.33 g/m*3 10.7 C 0 km/h
1202 26-10-2020 04:05:00 10.6 C 9.27 g/m*3 10.6 C 0 km/h
1203 26-10-2020 04:10:00 10.6 C 9.27 g/m*3 10.6 C 0 km/h
1204 26-10-2020 04:15:00 10.6 C 9.27 g/m*3 10.6 C 0 km/h
1205 26-10-2020 04:20:00 10.6 C 9.27 g/m*3 10.6 C 0 km/h
1206 26-10-2020 04:25:00 10.6 C 9.37 g/m*3 10.6 C 0 km/h
1207 26-10-2020 04:30:00 10.6 C 9.37 g/m*3 10.6 C 0 km/h
1208 26-10-2020 04:35:00 10.6 C 9.37 g/m*3 10.6 C 0 km/h
1209 26-10-2020 04:40:00 10.6 C 9.37 g/m*3 10.6 C 1.6 km/h
1210 26-10-2020 04:45:00 10.7 C 9.43 g/m*3 10.7 C 1.6 km/h
1211 26-10-2020 04:50:00 10.7 C 9.43 g/m*3 10.7 C 0 km/h
1212 26-10-2020 04:55:00 10.7 C 9.43 g/m*3 10.7 C 0 km/h
1213 26-10-2020 05:00:00 10.7 C 9.43 g/m*3 10.7 C 0 km/h
1214 26-10-2020 05:05:00 10.7 C 9.43 g/m*3 10.7 C 0 km/h
1215 26-10-2020 05:10:00 10.7 C 9.43 g/m*3 10.7 C 0 km/h
1216 26-10-2020 05:15:00 10.7 C 9.43 g/m*3 10.7 C 0 km/h
1217 26-10-2020 05:20:00 10.7 C 9.43 g/m*3 10.7 C 0 km/h
1218 26-10-2020 05:25:00 10.7 C 9.43 g/m*3 10.7 C 0 km/h
1219 26-10-2020 05:30:00 10.7 C 9.43 g/m*3 10.7 C 0 km/h
1220 26-10-2020 05:35:00 10.7 C 9.43 g/m*3 10.7 C 3.2 km/h
1221 26-10-2020 05:40:00 10.7 C 9.43 g/m*3 10.7 C 1.6 km/h
1222 26-10-2020 05:45:00 10.6 C 9.37 g/m*3 10.6 C 0 km/h
1223 26-10-2020 05:50:00 10.6 C 9.37 g/m*3 10.6 C 1.6 km/h
1224 26-10-2020 05:55:00 10.6 C 9.37 g/m*3 10.6 C 0 km/h
1225 26-10-2020 06:00:00 10.6 C 9.37 g/m*3 10.6 C 3.2 km/h
Sensor: Nr:Datum:Temp:Abs-Feuchte:Windchill:Wind:
Aussen-T/F 1226 26-10-2020 06:05:00 10.5 C 9.31 g/m*3 10.5 C 0 km/h
1227 26-10-2020 06:10:00 10.5 C 9.31 g/m*3 10.5 C 1.6 km/h
1228 26-10-2020 06:15:00 10.5 C 9.31 g/m*3 10.5 C 0 km/h
1229 26-10-2020 06:20:00 10.4 C 9.25 g/m*3 10.4 C 0 km/h
1230 26-10-2020 06:25:00 10.4 C 9.25 g/m*3 10.4 C 0 km/h
1231 26-10-2020 06:30:00 10.4 C 9.25 g/m*3 10.4 C 0 km/h
1232 26-10-2020 06:35:00 10.4 C 9.25 g/m*3 10.4 C 0 km/h
1233 26-10-2020 06:40:00 10.4 C 9.25 g/m*3 10.4 C 0 km/h
1234 26-10-2020 06:45:00 10.3 C 9.19 g/m*3 10.3 C 0 km/h
1235 26-10-2020 06:50:00 10.3 C 9.19 g/m*3 10.3 C 4.8 km/h
1236 26-10-2020 06:55:00 10.3 C 9.19 g/m*3 10.3 C 1.6 km/h
1237 26-10-2020 07:00:00 10.3 C 9.19 g/m*3 10.3 C 1.6 km/h
1238 26-10-2020 07:05:00 10.2 C 9.14 g/m*3 10.2 C 4.8 km/h
1239 26-10-2020 07:10:00 10.2 C 9.14 g/m*3 10.2 C 0 km/h
1240 26-10-2020 07:15:00 10.1 C 9.08 g/m*3 10.1 C 3.2 km/h
1241 26-10-2020 07:20:00 10 C 9.02 g/m*3 9.37 C 6.4 km/h
1242 26-10-2020 07:25:00 9.9 C 8.96 g/m*3 9.9 C 3.2 km/h
1243 26-10-2020 07:30:00 9.9 C 8.96 g/m*3 9.9 C 1.6 km/h
1244 26-10-2020 07:35:00 9.9 C 8.96 g/m*3 9.25 C 6.4 km/h
1245 26-10-2020 07:40:00 9.9 C 8.96 g/m*3 9.25 C 6.4 km/h
1246 26-10-2020 07:45:00 9.9 C 8.96 g/m*3 9.9 C 4.8 km/h
1247 26-10-2020 07:50:00 9.8 C 8.91 g/m*3 8.75 C 8.1 km/h
1248 26-10-2020 07:55:00 9.8 C 8.91 g/m*3 8.75 C 8.1 km/h
1249 26-10-2020 08:00:00 9.8 C 8.91 g/m*3 8.75 C 8.1 km/h
1250 26-10-2020 08:05:00 9.8 C 8.91 g/m*3 9.8 C 4.8 km/h
Sensor: Nr:Datum:Temp:Abs-Feuchte:Windchill:Wind:
Aussen-T/F 1251 26-10-2020 08:10:00 9.8 C 8.91 g/m*3 9.8 C 3.2 km/h
1252 26-10-2020 08:15:00 9.8 C 8.91 g/m*3 9.8 C 1.6 km/h
1253 26-10-2020 08:20:00 9.8 C 8.91 g/m*3 9.8 C 1.6 km/h
1254 26-10-2020 08:25:00 9.8 C 8.91 g/m*3 9.8 C 3.2 km/h
1255 26-10-2020 08:30:00 9.8 C 8.91 g/m*3 9.14 C 6.4 km/h
1256 26-10-2020 08:35:00 9.8 C 8.91 g/m*3 9.8 C 3.2 km/h
1257 26-10-2020 08:40:00 9.8 C 8.91 g/m*3 9.14 C 6.4 km/h
1258 26-10-2020 08:45:00 9.8 C 8.91 g/m*3 9.8 C 4.8 km/h
1259 26-10-2020 08:50:00 9.8 C 8.81 g/m*3 9.8 C 3.2 km/h
1260 26-10-2020 08:55:00 9.8 C 8.81 g/m*3 9.14 C 6.4 km/h
1261 26-10-2020 09:00:00 9.8 C 8.81 g/m*3 9.8 C 3.2 km/h
1262 26-10-2020 09:05:00 9.8 C 8.81 g/m*3 9.8 C 0 km/h
1263 26-10-2020 09:10:00 9.8 C 8.81 g/m*3 9.8 C 1.6 km/h
1264 26-10-2020 09:15:00 9.9 C 8.87 g/m*3 9.9 C 3.2 km/h
1265 26-10-2020 09:20:00 9.9 C 8.87 g/m*3 9.9 C 0 km/h
1266 26-10-2020 09:25:00 10 C 8.93 g/m*3 8.68 C 9.7 km/h
1267 26-10-2020 09:30:00 10.1 C 8.89 g/m*3 10.1 C 4.8 km/h
1268 26-10-2020 09:35:00 10.1 C 8.79 g/m*3 9.1 C 8.1 km/h
1269 26-10-2020 09:40:00 10.1 C 8.79 g/m*3 9.1 C 8.1 km/h
1270 26-10-2020 09:45:00 10.2 C 8.76 g/m*3 9.6 C 6.4 km/h
1271 26-10-2020 09:50:00 10.2 C 8.76 g/m*3 10.2 C 3.2 km/h
1272 26-10-2020 09:55:00 10.3 C 8.71 g/m*3 10.3 C 3.2 km/h
1273 26-10-2020 10:00:00 10.4 C 8.67 g/m*3 8.9 C 11.3 km/h
1274 26-10-2020 10:05:00 10.6 C 8.78 g/m*3 9.4 C 9.7 km/h
1275 26-10-2020 10:10:00 10.7 C 8.84 g/m*3 10.18 C 6.4 km/h
Sensor: Nr:Datum:Temp:Abs-Feuchte:Windchill:Wind:
Aussen-T/F 1276 26-10-2020 10:15:00 10.7 C 8.74 g/m*3 10.7 C 1.6 km/h
1277 26-10-2020 10:20:00 10.7 C 8.74 g/m*3 10.7 C 4.8 km/h
1278 26-10-2020 10:25:00 10.7 C 8.55 g/m*3 9.52 C 9.7 km/h
1279 26-10-2020 10:30:00 10.8 C 8.7 g/m*3 9.93 C 8.1 km/h
1280 26-10-2020 10:35:00 10.9 C 8.85 g/m*3 10.04 C 8.1 km/h
1281 26-10-2020 10:40:00 11.1 C 8.76 g/m*3 11.1 C 9.7 km/h
1282 26-10-2020 10:45:00 11.2 C 8.82 g/m*3 11.2 C 9.7 km/h
1283 26-10-2020 10:50:00 11.3 C 8.87 g/m*3 11.3 C 3.2 km/h
1284 26-10-2020 10:55:00 11.3 C 8.77 g/m*3 11.3 C 6.4 km/h
1285 26-10-2020 11:00:00 11.4 C 8.72 g/m*3 11.4 C 8.1 km/h
1286 26-10-2020 11:05:00 11.5 C 8.78 g/m*3 11.5 C 9.7 km/h
1287 26-10-2020 11:10:00 11.6 C 8.83 g/m*3 11.6 C 4.8 km/h
1288 26-10-2020 11:15:00 11.6 C 8.73 g/m*3 11.6 C 11.3 km/h
1289 26-10-2020 11:20:00 11.6 C 8.73 g/m*3 11.6 C 4.8 km/h
1290 26-10-2020 11:25:00 11.6 C 8.73 g/m*3 11.6 C 4.8 km/h
1291 26-10-2020 11:30:00 11.7 C 8.79 g/m*3 11.7 C 4.8 km/h
1292 26-10-2020 11:35:00 11.7 C 8.68 g/m*3 11.7 C 4.8 km/h
1293 26-10-2020 11:40:00 11.7 C 8.68 g/m*3 11.7 C 6.4 km/h
1294 26-10-2020 11:45:00 11.7 C 8.58 g/m*3 11.7 C 8.1 km/h
1295 26-10-2020 11:50:00 11.6 C 8.52 g/m*3 11.6 C 8.1 km/h
1296 26-10-2020 11:55:00 11.6 C 8.63 g/m*3 11.6 C 8.1 km/h
1297 26-10-2020 12:00:00 11.6 C 8.63 g/m*3 11.6 C 6.4 km/h
1298 26-10-2020 12:05:00 11.6 C 8.63 g/m*3 11.6 C 8.1 km/h
1299 26-10-2020 12:10:00 11.7 C 8.47 g/m*3 11.7 C 11.3 km/h
1300 26-10-2020 12:15:00 11.7 C 8.47 g/m*3 11.7 C 12.9 km/h
Sensor: Nr:Datum:Temp:Abs-Feuchte:Windchill:Wind:
Aussen-T/F 1301 26-10-2020 12:20:00 11.7 C 8.37 g/m*3 11.7 C 9.7 km/h
1302 26-10-2020 12:25:00 11.8 C 8.53 g/m*3 11.8 C 6.4 km/h
1303 26-10-2020 12:30:00 11.8 C 8.31 g/m*3 11.8 C 14.5 km/h
1304 26-10-2020 12:35:00 11.8 C 8.31 g/m*3 11.8 C 11.3 km/h
1305 26-10-2020 12:40:00 11.8 C 8.31 g/m*3 11.8 C 12.9 km/h
1306 26-10-2020 12:45:00 11.8 C 8.21 g/m*3 11.8 C 12.9 km/h
1307 26-10-2020 12:50:00 11.9 C 8.37 g/m*3 11.9 C 8.1 km/h
1308 26-10-2020 12:55:00 12 C 8.42 g/m*3 12 C 4.8 km/h
1309 26-10-2020 13:00:00 12.1 C 8.47 g/m*3 12.1 C 8.1 km/h
1310 26-10-2020 13:05:00 12.1 C 8.26 g/m*3 12.1 C 11.3 km/h
1311 26-10-2020 13:10:00 12 C 8.21 g/m*3 12 C 14.5 km/h
1312 26-10-2020 13:15:00 12 C 8.1 g/m*3 12 C 11.3 km/h
1313 26-10-2020 13:20:00 12 C 8.1 g/m*3 12 C 8.1 km/h
1314 26-10-2020 13:25:00 12 C 8.21 g/m*3 12 C 11.3 km/h
1315 26-10-2020 13:30:00 11.9 C 8.05 g/m*3 11.9 C 8.1 km/h
1316 26-10-2020 13:35:00 11.9 C 8.05 g/m*3 11.9 C 9.7 km/h
1317 26-10-2020 13:40:00 11.9 C 8.05 g/m*3 11.9 C 9.7 km/h
1318 26-10-2020 13:45:00 12 C 8.1 g/m*3 12 C 11.3 km/h
1319 26-10-2020 13:50:00 12.1 C 8.15 g/m*3 12.1 C 4.8 km/h
1320 26-10-2020 13:55:00 12.1 C 8.15 g/m*3 12.1 C 3.2 km/h
1321 26-10-2020 14:00:00 12.2 C 8.09 g/m*3 12.2 C 9.7 km/h
1322 26-10-2020 14:05:00 12.2 C 8.09 g/m*3 12.2 C 9.7 km/h
1323 26-10-2020 14:10:00 12.2 C 7.99 g/m*3 12.2 C 8.1 km/h
1324 26-10-2020 14:15:00 12.2 C 7.88 g/m*3 12.2 C 8.1 km/h
1325 26-10-2020 14:20:00 12.2 C 7.99 g/m*3 12.2 C 8.1 km/h
Sensor: Nr:Datum:Temp:Abs-Feuchte:Windchill:Wind:
Aussen-T/F 1326 26-10-2020 14:25:00 12.2 C 8.09 g/m*3 12.2 C 3.2 km/h
1327 26-10-2020 14:30:00 12.2 C 7.88 g/m*3 12.2 C 9.7 km/h
1328 26-10-2020 14:35:00 12.2 C 7.88 g/m*3 12.2 C 6.4 km/h
1329 26-10-2020 14:40:00 12.2 C 7.77 g/m*3 12.2 C 8.1 km/h
1330 26-10-2020 14:45:00 12.1 C 7.94 g/m*3 12.1 C 9.7 km/h
1331 26-10-2020 14:50:00 12.1 C 7.83 g/m*3 12.1 C 6.4 km/h
1332 26-10-2020 14:55:00 12.2 C 8.09 g/m*3 12.2 C 1.6 km/h
1333 26-10-2020 15:00:00 12.2 C 7.88 g/m*3 12.2 C 4.8 km/h
1334 26-10-2020 15:05:00 12.3 C 8.04 g/m*3 12.3 C 1.6 km/h
1335 26-10-2020 15:10:00 12.3 C 7.93 g/m*3 12.3 C 8.1 km/h
1336 26-10-2020 15:15:00 12.3 C 7.82 g/m*3 12.3 C 6.4 km/h
1337 26-10-2020 15:20:00 12.3 C 7.93 g/m*3 12.3 C 3.2 km/h
1338 26-10-2020 15:25:00 12.3 C 7.93 g/m*3 12.3 C 6.4 km/h
1339 26-10-2020 15:30:00 12.3 C 7.93 g/m*3 12.3 C 8.1 km/h
1340 26-10-2020 15:35:00 12.2 C 7.77 g/m*3 12.2 C 4.8 km/h
1341 26-10-2020 15:40:00 12.2 C 7.77 g/m*3 12.2 C 6.4 km/h
1342 26-10-2020 15:45:00 12.2 C 7.99 g/m*3 12.2 C 6.4 km/h
1343 26-10-2020 15:50:00 12.1 C 7.83 g/m*3 12.1 C 8.1 km/h
1344 26-10-2020 15:55:00 12.1 C 7.94 g/m*3 12.1 C 3.2 km/h
1345 26-10-2020 16:00:00 12.1 C 8.04 g/m*3 12.1 C 3.2 km/h
1346 26-10-2020 16:05:00 12.1 C 7.94 g/m*3 12.1 C 3.2 km/h
1347 26-10-2020 16:10:00 12.1 C 7.83 g/m*3 12.1 C 9.7 km/h
1348 26-10-2020 16:15:00 12.1 C 8.04 g/m*3 12.1 C 4.8 km/h
1349 26-10-2020 16:20:00 12.1 C 8.15 g/m*3 12.1 C 3.2 km/h
1350 26-10-2020 16:25:00 12.1 C 8.04 g/m*3 12.1 C 3.2 km/h
Sensor: Nr:Datum:Temp:Abs-Feuchte:Windchill:Wind:
Aussen-T/F 1351 26-10-2020 16:30:00 12.2 C 8.2 g/m*3 12.2 C 3.2 km/h
1352 26-10-2020 16:35:00 12.2 C 8.42 g/m*3 12.2 C 3.2 km/h
1353 26-10-2020 16:40:00 12.2 C 8.2 g/m*3 12.2 C 4.8 km/h
1354 26-10-2020 16:45:00 12 C 8.1 g/m*3 12 C 4.8 km/h
1355 26-10-2020 16:50:00 11.8 C 8.1 g/m*3 11.8 C 1.6 km/h
1356 26-10-2020 16:55:00 11.6 C 8 g/m*3 11.6 C 1.6 km/h
1357 26-10-2020 17:00:00 11.4 C 8.01 g/m*3 11.4 C 1.6 km/h
1358 26-10-2020 17:05:00 11.2 C 8.01 g/m*3 11.2 C 3.2 km/h
1359 26-10-2020 17:10:00 11 C 8.01 g/m*3 11 C 3.2 km/h
1360 26-10-2020 17:15:00 10.8 C 8.01 g/m*3 10.8 C 0 km/h
1361 26-10-2020 17:20:00 10.7 C 7.96 g/m*3 10.7 C 0 km/h
1362 26-10-2020 17:25:00 10.5 C 7.86 g/m*3 10.5 C 0 km/h
1363 26-10-2020 17:30:00 10.3 C 7.85 g/m*3 10.3 C 4.8 km/h
1364 26-10-2020 17:35:00 10.2 C 7.9 g/m*3 10.2 C 3.2 km/h
1365 26-10-2020 17:40:00 10.1 C 7.85 g/m*3 10.1 C 4.8 km/h
1366 26-10-2020 17:45:00 9.8 C 7.79 g/m*3 9.8 C 0 km/h
1367 26-10-2020 17:50:00 9.7 C 7.74 g/m*3 9.7 C 4.8 km/h
1368 26-10-2020 17:55:00 9.6 C 7.79 g/m*3 9.6 C 3.2 km/h
1369 26-10-2020 18:00:00 9.4 C 7.69 g/m*3 9.4 C 4.8 km/h
1370 26-10-2020 18:05:00 9.2 C 7.68 g/m*3 9.2 C 1.6 km/h
1371 26-10-2020 18:10:00 9.1 C 7.63 g/m*3 9.1 C 1.6 km/h
1372 26-10-2020 18:15:00 8.9 C 7.53 g/m*3 8.9 C 3.2 km/h
1373 26-10-2020 18:20:00 8.8 C 7.49 g/m*3 8.8 C 4.8 km/h
1374 26-10-2020 18:25:00 8.6 C 7.39 g/m*3 8.6 C 4.8 km/h
1375 26-10-2020 18:30:00 8.6 C 7.48 g/m*3 7.75 C 6.4 km/h
Sensor: Nr:Datum:Temp:Abs-Feuchte:Windchill:Wind:
Aussen-T/F 1376 26-10-2020 18:35:00 8.4 C 7.38 g/m*3 7.52 C 6.4 km/h
1377 26-10-2020 18:40:00 8.3 C 7.33 g/m*3 8.3 C 3.2 km/h
1378 26-10-2020 18:45:00 8.2 C 7.29 g/m*3 8.2 C 4.8 km/h
1379 26-10-2020 18:50:00 8.1 C 7.32 g/m*3 8.1 C 3.2 km/h
1380 26-10-2020 18:55:00 7.9 C 7.23 g/m*3 7.9 C 4.8 km/h
1381 26-10-2020 19:00:00 7.9 C 7.23 g/m*3 7.9 C 3.2 km/h
1382 26-10-2020 19:05:00 7.8 C 7.26 g/m*3 7.8 C 3.2 km/h
1383 26-10-2020 19:10:00 7.8 C 7.35 g/m*3 7.8 C 0 km/h
1384 26-10-2020 19:15:00 7.8 C 7.35 g/m*3 7.8 C 3.2 km/h
1385 26-10-2020 19:20:00 7.8 C 7.35 g/m*3 7.8 C 3.2 km/h
1386 26-10-2020 19:25:00 7.7 C 7.3 g/m*3 7.7 C 0 km/h
1387 26-10-2020 19:30:00 7.7 C 7.3 g/m*3 7.7 C 1.6 km/h
1388 26-10-2020 19:35:00 7.6 C 7.25 g/m*3 7.6 C 3.2 km/h
1389 26-10-2020 19:40:00 7.6 C 7.25 g/m*3 6.6 C 6.4 km/h
1390 26-10-2020 19:45:00 7.6 C 7.33 g/m*3 7.6 C 3.2 km/h
1391 26-10-2020 19:50:00 7.5 C 7.28 g/m*3 7.5 C 0 km/h
1392 26-10-2020 19:55:00 7.4 C 7.24 g/m*3 7.4 C 0 km/h
1393 26-10-2020 20:00:00 7.4 C 7.24 g/m*3 7.4 C 0 km/h
1394 26-10-2020 20:05:00 7.4 C 7.24 g/m*3 7.4 C 3.2 km/h
1395 26-10-2020 20:10:00 7.5 C 7.28 g/m*3 7.5 C 0 km/h
1396 26-10-2020 20:15:00 7.5 C 7.28 g/m*3 7.5 C 1.6 km/h
1397 26-10-2020 20:20:00 7.5 C 7.28 g/m*3 7.5 C 0 km/h
1398 26-10-2020 20:25:00 7.5 C 7.28 g/m*3 7.5 C 3.2 km/h
1399 26-10-2020 20:30:00 7.6 C 7.33 g/m*3 7.6 C 1.6 km/h
1400 26-10-2020 20:35:00 7.6 C 7.33 g/m*3 7.6 C 4.8 km/h
Sensor: Nr:Datum:Temp:Abs-Feuchte:Windchill:Wind:
Aussen-T/F 1401 26-10-2020 20:40:00 7.7 C 7.38 g/m*3 7.7 C 3.2 km/h
1402 26-10-2020 20:45:00 7.8 C 7.43 g/m*3 7.8 C 1.6 km/h
1403 26-10-2020 20:50:00 7.9 C 7.39 g/m*3 7.9 C 1.6 km/h
1404 26-10-2020 20:55:00 8.1 C 7.49 g/m*3 8.1 C 3.2 km/h
1405 26-10-2020 21:00:00 8.1 C 7.49 g/m*3 8.1 C 3.2 km/h
1406 26-10-2020 21:05:00 8.2 C 7.54 g/m*3 8.2 C 1.6 km/h
1407 26-10-2020 21:10:00 8.3 C 7.5 g/m*3 8.3 C 4.8 km/h
1408 26-10-2020 21:15:00 8.3 C 7.5 g/m*3 6.99 C 8.1 km/h
1409 26-10-2020 21:20:00 8.4 C 7.47 g/m*3 8.4 C 3.2 km/h
1410 26-10-2020 21:25:00 8.3 C 7.42 g/m*3 8.3 C 1.6 km/h
1411 26-10-2020 21:30:00 8.3 C 7.42 g/m*3 8.3 C 1.6 km/h
1412 26-10-2020 21:35:00 8.2 C 7.37 g/m*3 8.2 C 0 km/h
1413 26-10-2020 21:40:00 8 C 7.28 g/m*3 8 C 3.2 km/h
1414 26-10-2020 21:45:00 7.9 C 7.31 g/m*3 7.9 C 3.2 km/h
1415 26-10-2020 21:50:00 7.8 C 7.26 g/m*3 7.8 C 3.2 km/h
1416 26-10-2020 21:55:00 7.7 C 7.22 g/m*3 7.7 C 3.2 km/h
1417 26-10-2020 22:00:00 7.7 C 7.22 g/m*3 7.7 C 3.2 km/h
1418 26-10-2020 22:05:00 7.7 C 7.3 g/m*3 7.7 C 0 km/h
1419 26-10-2020 22:10:00 7.7 C 7.3 g/m*3 7.7 C 3.2 km/h
1420 26-10-2020 22:15:00 7.8 C 7.35 g/m*3 7.8 C 0 km/h
1421 26-10-2020 22:20:00 7.8 C 7.35 g/m*3 7.8 C 1.6 km/h
1422 26-10-2020 22:25:00 7.8 C 7.35 g/m*3 7.8 C 1.6 km/h
1423 26-10-2020 22:30:00 7.8 C 7.35 g/m*3 7.8 C 1.6 km/h
1424 26-10-2020 22:35:00 7.8 C 7.43 g/m*3 7.8 C 1.6 km/h
1425 26-10-2020 22:40:00 7.8 C 7.43 g/m*3 7.8 C 1.6 km/h
Sensor: Nr:Datum:Temp:Abs-Feuchte:Windchill:Wind:
Aussen-T/F 1426 26-10-2020 22:45:00 7.8 C 7.35 g/m*3 7.8 C 1.6 km/h
1427 26-10-2020 22:50:00 7.8 C 7.43 g/m*3 7.8 C 3.2 km/h
1428 26-10-2020 22:55:00 7.8 C 7.43 g/m*3 7.8 C 4.8 km/h
1429 26-10-2020 23:00:00 7.8 C 7.43 g/m*3 7.8 C 3.2 km/h
1430 26-10-2020 23:05:00 7.7 C 7.38 g/m*3 7.7 C 1.6 km/h
1431 26-10-2020 23:10:00 7.7 C 7.38 g/m*3 7.7 C 1.6 km/h
1432 26-10-2020 23:15:00 7.7 C 7.38 g/m*3 7.7 C 3.2 km/h
1433 26-10-2020 23:20:00 7.7 C 7.38 g/m*3 7.7 C 3.2 km/h
1434 26-10-2020 23:25:00 7.7 C 7.38 g/m*3 7.7 C 1.6 km/h
1435 26-10-2020 23:30:00 7.7 C 7.38 g/m*3 7.7 C 0 km/h
1436 26-10-2020 23:35:00 7.6 C 7.33 g/m*3 7.6 C 4.8 km/h
1437 26-10-2020 23:40:00 7.6 C 7.33 g/m*3 7.6 C 0 km/h
1438 26-10-2020 23:45:00 7.6 C 7.33 g/m*3 7.6 C 1.6 km/h
1439 26-10-2020 23:50:00 7.6 C 7.41 g/m*3 6.16 C 8.1 km/h
1440 26-10-2020 23:55:00 7.6 C 7.41 g/m*3 7.6 C 1.6 km/h

Legende:
   Min
   Max


Maximal/Minimal-Werte vom 22.10.2020 - 26.10.2020

Sensor Min Max Avg
Temp
(Aussen-T/F)
7.4 °C
26-10-2020  19:55:00
20.6 °C
22-10-2020  16:30:00
13.61 °C
Abs-Feuchte
(Aussen-T/F)
7.22 g/m*3
26-10-2020  21:55:00
13.12 g/m*3
23-10-2020  14:40:00
10.42 g/m*3
Windchill
(Aussen-T/F)
6.16 C
26-10-2020  23:50:00
20.6 C
22-10-2020  16:30:00
13.58 C

Die Daten stammen von einer Davis Vantage Pro 2 Wetter-Station und werden unter Linux mit der Software wview2wettercgi und aufbereitet. Alle Angaben erfolgen ohne Gewähr für ihre Vollständigkeit oder Richtigkeit.
Kontakt: Rainer Krienke krienke@uni-koblenz.de . Meine Webseiten an der Uni Koblenz oder privat.
Version: $Revision: 0.78 $